Time,TemperatureF,DewpointF,PressureIn,WindDirection,WindDirectionDegrees,WindSpeedMPH,WindSpeedGustMPH,Humidity,HourlyPrecipIn,Conditions,Clouds,dailyrainin,SoftwareType,DateUTC
2013-03-22 00:03:00,65.5,63.7,29.82,NNE,22,0.0,0.0,94,0.00,,---,0.00,VWS V14.01,2013-03-21 22:03:00,
2013-03-22 00:04:00,65.5,63.7,29.82,NNE,22,0.0,0.0,94,0.00,,---,0.00,VWS V14.01,2013-03-21 22:04:00,
2013-03-22 00:06:00,65.3,63.5,29.82,NNE,22,0.0,0.0,94,0.00,,---,0.00,VWS V14.01,2013-03-21 22:06:00,
2013-03-22 00:11:00,65.1,63.3,29.82,NNE,22,0.0,0.0,94,0.00,,---,0.00,VWS V14.01,2013-03-21 22:11:00,
2013-03-22 00:12:00,65.1,63.3,29.82,NNE,22,0.0,0.0,94,0.00,,---,0.00,VWS V14.01,2013-03-21 22:12:00,
2013-03-22 00:14:00,65.1,63.3,29.82,NNE,22,0.0,0.0,94,0.00,,---,0.00,VWS V14.01,2013-03-21 22:14:00,
2013-03-22 00:16:00,65.1,63.3,29.82,NE,45,0.0,0.0,94,0.00,,---,0.00,VWS V14.01,2013-03-21 22:16:00,
2013-03-22 00:18:00,65.1,63.7,29.82,NE,45,0.0,0.0,95,0.00,,---,0.00,VWS V14.01,2013-03-21 22:18:00,
2013-03-22 00:21:00,65.5,64.0,29.82,NE,45,0.0,0.0,95,0.00,,---,0.00,VWS V14.01,2013-03-21 22:21:00,
2013-03-22 00:23:00,65.5,64.0,29.82,NE,45,0.0,0.0,95,0.00,,---,0.00,VWS V14.01,2013-03-21 22:23:00,
2013-03-22 00:26:00,65.5,64.0,29.82,NE,45,0.0,0.0,95,0.00,,---,0.00,VWS V14.01,2013-03-21 22:26:00,
2013-03-22 00:27:00,65.5,64.0,29.82,NE,45,0.0,0.0,95,0.00,,---,0.00,VWS V14.01,2013-03-21 22:27:00,
2013-03-22 00:28:00,65.3,63.8,29.82,NE,45,0.0,0.0,95,0.00,,---,0.00,VWS V14.01,2013-03-21 22:28:00,
2013-03-22 00:29:00,65.3,63.8,29.82,NE,45,0.0,0.0,95,0.00,,---,0.00,VWS V14.01,2013-03-21 22:29:00,
2013-03-22 00:33:00,65.3,63.8,29.82,NE,45,0.0,0.0,95,0.00,,---,0.00,VWS V14.01,2013-03-21 22:33:00,
2013-03-22 00:34:00,65.3,63.8,29.82,NE,45,0.0,0.0,95,0.00,,---,0.00,VWS V14.01,2013-03-21 22:34:00,
2013-03-22 00:36:00,65.5,64.0,29.82,ENE,68,0.0,0.0,95,0.00,,---,0.00,VWS V14.01,2013-03-21 22:36:00,
2013-03-22 00:37:00,65.5,64.0,29.82,ENE,68,0.0,0.0,95,0.00,,---,0.00,VWS V14.01,2013-03-21 22:37:00,
2013-03-22 00:39:00,65.5,64.3,29.82,ENE,68,0.0,0.0,96,0.00,,---,0.00,VWS V14.01,2013-03-21 22:39:00,
2013-03-22 00:40:00,65.5,64.3,29.82,ENE,68,0.0,0.0,96,0.00,,---,0.00,VWS V14.01,2013-03-21 22:40:00,
2013-03-22 00:43:00,65.5,64.3,29.82,ENE,68,0.0,0.0,96,0.00,,---,0.00,VWS V14.01,2013-03-21 22:43:00,
2013-03-22 00:46:00,65.5,64.3,29.82,ENE,68,0.0,0.0,96,0.00,,---,0.00,VWS V14.01,2013-03-21 22:46:00,
2013-03-22 00:47:00,65.5,64.3,29.82,ENE,68,0.0,0.0,96,0.00,,---,0.00,VWS V14.01,2013-03-21 22:47:00,
2013-03-22 00:48:00,65.5,64.3,29.82,ENE,68,0.0,0.0,96,0.00,,---,0.00,VWS V14.01,2013-03-21 22:48:00,
2013-03-22 00:51:00,65.3,64.1,29.82,ENE,68,0.0,0.0,96,0.00,,---,0.00,VWS V14.01,2013-03-21 22:51:00,
2013-03-22 00:53:00,65.3,63.8,29.82,ENE,68,0.0,0.0,95,0.00,,---,0.00,VWS V14.01,2013-03-21 22:53:00,
2013-03-22 00:56:00,65.1,63.7,29.82,ENE,68,0.0,0.0,95,0.00,,---,0.00,VWS V14.01,2013-03-21 22:56:00,
2013-03-22 00:58:00,65.1,63.7,29.82,ENE,68,0.0,0.0,95,0.00,,---,0.00,VWS V14.01,2013-03-21 22:58:00,
2013-03-22 00:59:00,65.3,64.1,29.82,ENE,68,0.0,0.0,96,0.00,,---,0.00,VWS V14.01,2013-03-21 22:59:00,
2013-03-22 01:01:00,65.1,64.0,29.82,East,90,0.0,0.0,96,0.00,,---,0.00,VWS V14.01,2013-03-21 23:01:00,
2013-03-22 01:03:00,65.1,64.0,29.82,East,90,0.0,0.0,96,0.00,,---,0.00,VWS V14.01,2013-03-21 23:03:00,
2013-03-22 01:05:00,65.1,64.0,29.82,East,90,0.0,0.0,96,0.00,,---,0.00,VWS V14.01,2013-03-21 23:05:00,
2013-03-22 01:08:00,65.1,64.0,29.82,East,90,0.0,0.0,96,0.00,,---,0.00,VWS V14.01,2013-03-21 23:08:00,
2013-03-22 01:12:00,65.3,64.1,29.79,East,90,0.0,0.0,96,0.00,,---,0.00,VWS V14.01,2013-03-21 23:12:00,
2013-03-22 01:14:00,65.5,64.3,29.79,East,90,0.0,0.0,96,0.00,,---,0.00,VWS V14.01,2013-03-21 23:14:00,
2013-03-22 01:17:00,65.3,64.1,29.79,East,90,0.0,0.0,96,0.00,,---,0.00,VWS V14.01,2013-03-21 23:17:00,
2013-03-22 01:22:00,65.1,64.0,29.79,East,90,0.0,0.0,96,0.00,,---,0.00,VWS V14.01,2013-03-21 23:22:00,
2013-03-22 01:23:00,65.1,64.0,29.79,East,90,0.0,0.0,96,0.00,,---,0.00,VWS V14.01,2013-03-21 23:23:00,
2013-03-22 01:25:00,65.3,64.1,29.79,East,90,0.0,0.0,96,0.00,,---,0.00,VWS V14.01,2013-03-21 23:25:00,
2013-03-22 01:26:00,65.3,64.1,29.79,East,90,0.0,0.0,96,0.00,,---,0.00,VWS V14.01,2013-03-21 23:26:00,
2013-03-22 01:30:00,65.1,64.0,29.79,East,90,0.0,0.0,96,0.00,,---,0.00,VWS V14.01,2013-03-21 23:30:00,
2013-03-22 01:31:00,65.1,64.0,29.79,East,90,0.0,0.0,96,0.00,,---,0.00,VWS V14.01,2013-03-21 23:31:00,
2013-03-22 01:32:00,65.1,64.0,29.79,East,90,0.0,0.0,96,0.00,,---,0.00,VWS V14.01,2013-03-21 23:32:00,
2013-03-22 01:34:00,64.9,63.8,29.79,East,90,0.0,0.0,96,0.00,,---,0.00,VWS V14.01,2013-03-21 23:34:00,
2013-03-22 01:37:00,64.9,63.8,29.79,East,90,0.0,0.0,96,0.00,,---,0.00,VWS V14.01,2013-03-21 23:37:00,
2013-03-22 01:41:00,65.1,64.0,29.79,East,90,0.0,0.0,96,0.00,,---,0.00,VWS V14.01,2013-03-21 23:41:00,
2013-03-22 01:42:00,65.1,64.0,29.79,East,90,0.0,0.0,96,0.00,,---,0.00,VWS V14.01,2013-03-21 23:42:00,
2013-03-22 01:46:00,65.1,64.0,29.79,East,90,0.0,0.0,96,0.00,,---,0.00,VWS V14.01,2013-03-21 23:46:00,
2013-03-22 01:47:00,65.1,64.0,29.79,East,90,0.0,0.0,96,0.00,,---,0.00,VWS V14.01,2013-03-21 23:47:00,
2013-03-22 01:48:00,65.1,64.0,29.79,East,90,0.0,0.0,96,0.00,,---,0.00,VWS V14.01,2013-03-21 23:48:00,
2013-03-22 01:50:00,65.1,64.2,29.79,East,90,0.0,0.0,97,0.00,,---,0.00,VWS V14.01,2013-03-21 23:50:00,
2013-03-22 01:54:00,65.3,64.4,29.79,East,90,0.0,0.0,97,0.00,,---,0.00,VWS V14.01,2013-03-21 23:54:00,
2013-03-22 01:55:00,65.3,64.4,29.79,East,90,0.0,0.0,97,0.00,,---,0.00,VWS V14.01,2013-03-21 23:55:00,
2013-03-22 01:56:00,65.5,64.6,29.79,East,90,0.0,0.0,97,0.00,,---,0.00,VWS V14.01,2013-03-21 23:56:00,
2013-03-22 01:58:00,65.7,64.8,29.79,East,90,0.0,0.0,97,0.00,,---,0.00,VWS V14.01,2013-03-21 23:58:00,
2013-03-22 02:01:00,65.8,65.3,29.79,ESE,112,0.0,0.0,98,0.00,,---,0.00,VWS V14.01,2013-03-22 00:01:00,
2013-03-22 02:02:00,66.0,65.4,29.79,ESE,112,0.0,0.0,98,0.00,,---,0.00,VWS V14.01,2013-03-22 00:02:00,
2013-03-22 02:05:00,66.2,65.6,29.79,ESE,112,0.0,0.0,98,0.00,,---,0.00,VWS V14.01,2013-03-22 00:05:00,
2013-03-22 02:06:00,66.2,65.6,29.79,ESE,112,0.0,0.0,98,0.00,,---,0.00,VWS V14.01,2013-03-22 00:06:00,
2013-03-22 02:08:00,66.2,65.6,29.79,ESE,112,0.0,0.0,98,0.00,,---,0.00,VWS V14.01,2013-03-22 00:08:00,
2013-03-22 02:12:00,66.4,65.8,29.79,ESE,112,0.0,0.0,98,0.00,,---,0.00,VWS V14.01,2013-03-22 00:12:00,
2013-03-22 02:13:00,66.4,65.8,29.79,ESE,112,0.0,0.0,98,0.00,,---,0.00,VWS V14.01,2013-03-22 00:13:00,
2013-03-22 02:15:00,66.4,65.8,29.79,ESE,112,0.0,0.0,98,0.00,,---,0.00,VWS V14.01,2013-03-22 00:15:00,
2013-03-22 02:18:00,66.6,66.0,29.79,ESE,112,0.0,0.0,98,0.00,,---,0.00,VWS V14.01,2013-03-22 00:18:00,
2013-03-22 02:20:00,66.6,66.0,29.79,ESE,112,0.0,0.0,98,0.00,,---,0.00,VWS V14.01,2013-03-22 00:20:00,
2013-03-22 02:22:00,66.7,66.2,29.79,ESE,112,0.0,0.0,98,0.00,,---,0.00,VWS V14.01,2013-03-22 00:22:00,
2013-03-22 02:23:00,66.7,66.2,29.79,ESE,112,0.0,0.0,98,0.00,,---,0.00,VWS V14.01,2013-03-22 00:23:00,
2013-03-22 02:25:00,66.7,66.2,29.79,ESE,112,0.0,0.0,98,0.00,,---,0.00,VWS V14.01,2013-03-22 00:25:00,
2013-03-22 02:27:00,66.7,66.2,29.79,ESE,112,0.0,0.0,98,0.00,,---,0.00,VWS V14.01,2013-03-22 00:27:00,
2013-03-22 02:30:00,66.7,66.2,29.79,ESE,112,0.0,0.0,98,0.00,,---,0.00,VWS V14.01,2013-03-22 00:30:00,
2013-03-22 02:32:00,66.7,66.2,29.79,ESE,112,0.0,0.0,98,0.00,,---,0.00,VWS V14.01,2013-03-22 00:32:00,
2013-03-22 02:33:00,66.7,66.2,29.79,ESE,112,0.0,0.0,98,0.00,,---,0.00,VWS V14.01,2013-03-22 00:33:00,
2013-03-22 02:37:00,66.7,66.2,29.79,ENE,68,0.0,0.0,98,0.00,,---,0.00,VWS V14.01,2013-03-22 00:37:00,
2013-03-22 02:38:00,66.7,66.2,29.79,ESE,112,0.0,0.0,98,0.00,,---,0.00,VWS V14.01,2013-03-22 00:38:00,
2013-03-22 02:40:00,66.7,66.2,29.79,East,90,0.0,0.0,98,0.00,,---,0.00,VWS V14.01,2013-03-22 00:40:00,
2013-03-22 02:44:00,66.6,66.0,29.79,ENE,68,0.0,0.0,98,0.00,,---,0.00,VWS V14.01,2013-03-22 00:44:00,
2013-03-22 02:46:00,66.6,66.0,29.79,ENE,68,0.0,0.0,98,0.00,,---,0.00,VWS V14.01,2013-03-22 00:46:00,
2013-03-22 02:47:00,66.7,66.2,29.79,ENE,68,0.0,0.0,98,0.00,,---,0.00,VWS V14.01,2013-03-22 00:47:00,
2013-03-22 02:51:00,66.6,66.0,29.79,East,90,0.0,0.0,98,0.00,,---,0.00,VWS V14.01,2013-03-22 00:51:00,
2013-03-22 02:52:00,66.6,66.0,29.79,NE,45,0.0,0.0,98,0.00,,---,0.00,VWS V14.01,2013-03-22 00:52:00,
2013-03-22 02:57:00,66.6,66.0,29.76,ESE,112,0.0,0.0,98,0.00,,---,0.00,VWS V14.01,2013-03-22 00:57:00,
2013-03-22 02:58:00,66.6,66.0,29.76,ESE,112,0.0,0.0,98,0.00,,---,0.00,VWS V14.01,2013-03-22 00:58:00,
2013-03-22 03:00:00,66.4,65.8,29.76,ESE,112,0.0,0.0,98,0.00,,---,0.00,VWS V14.01,2013-03-22 01:00:00,
2013-03-22 03:04:00,66.4,65.8,29.76,ESE,112,0.0,0.0,98,0.00,,---,0.00,VWS V14.01,2013-03-22 01:04:00,
2013-03-22 03:05:00,66.4,65.8,29.76,ESE,112,0.0,0.0,98,0.00,,---,0.00,VWS V14.01,2013-03-22 01:05:00,
2013-03-22 03:10:00,66.2,65.6,29.76,ESE,112,0.0,0.0,98,0.00,,---,0.00,VWS V14.01,2013-03-22 01:10:00,
2013-03-22 03:11:00,66.2,65.6,29.79,ESE,112,0.0,0.0,98,0.00,,---,0.00,VWS V14.01,2013-03-22 01:11:00,
2013-03-22 03:12:00,66.2,65.6,29.79,ESE,112,0.0,0.0,98,0.00,,---,0.00,VWS V14.01,2013-03-22 01:12:00,
2013-03-22 03:14:00,66.4,65.8,29.79,ESE,112,0.0,0.0,98,0.00,,---,0.00,VWS V14.01,2013-03-22 01:14:00,
2013-03-22 03:15:00,66.4,65.8,29.79,ESE,112,0.0,0.0,98,0.00,,---,0.00,VWS V14.01,2013-03-22 01:15:00,
2013-03-22 03:19:00,66.4,65.8,29.79,ESE,112,0.0,0.0,98,0.00,,---,0.00,VWS V14.01,2013-03-22 01:19:00,
2013-03-22 03:23:00,66.4,65.8,29.79,ESE,112,0.0,0.0,98,0.00,,---,0.00,VWS V14.01,2013-03-22 01:23:00,
2013-03-22 03:25:00,66.6,66.0,29.79,ENE,68,0.0,0.0,98,0.00,,---,0.00,VWS V14.01,2013-03-22 01:25:00,
2013-03-22 03:27:00,66.6,66.0,29.76,ESE,112,0.0,0.0,98,0.00,,---,0.00,VWS V14.01,2013-03-22 01:27:00,
2013-03-22 03:30:00,66.6,66.0,29.76,ESE,112,0.0,0.0,98,0.00,,---,0.00,VWS V14.01,2013-03-22 01:30:00,
2013-03-22 03:31:00,66.6,66.0,29.76,ESE,112,0.0,0.0,98,0.00,,---,0.00,VWS V14.01,2013-03-22 01:31:00,
2013-03-22 03:33:00,66.6,66.0,29.76,ENE,68,0.0,0.0,98,0.00,,---,0.00,VWS V14.01,2013-03-22 01:33:00,
2013-03-22 03:34:00,66.6,66.0,29.76,ENE,68,0.0,0.0,98,0.00,,---,0.00,VWS V14.01,2013-03-22 01:34:00,
2013-03-22 03:36:00,66.6,66.0,29.76,ENE,68,0.0,0.0,98,0.00,,---,0.00,VWS V14.01,2013-03-22 01:36:00,
2013-03-22 03:37:00,66.6,66.0,29.76,ESE,112,0.0,0.0,98,0.00,,---,0.00,VWS V14.01,2013-03-22 01:37:00,
2013-03-22 03:39:00,66.6,66.0,29.76,East,90,0.0,0.0,98,0.00,,---,0.00,VWS V14.01,2013-03-22 01:39:00,
2013-03-22 03:42:00,66.6,66.0,29.79,East,90,0.0,0.0,98,0.00,,---,0.00,VWS V14.01,2013-03-22 01:42:00,
2013-03-22 03:44:00,66.6,66.0,29.79,ENE,68,0.0,0.0,98,0.00,,---,0.00,VWS V14.01,2013-03-22 01:44:00,
2013-03-22 03:45:00,66.6,66.0,29.79,ESE,112,0.0,0.0,98,0.00,,---,0.00,VWS V14.01,2013-03-22 01:45:00,
2013-03-22 03:49:00,66.6,66.0,29.79,East,90,0.0,0.0,98,0.00,,---,0.00,VWS V14.01,2013-03-22 01:49:00,
2013-03-22 03:50:00,66.6,66.0,29.79,East,90,0.0,0.0,98,0.00,,---,0.00,VWS V14.01,2013-03-22 01:50:00,
2013-03-22 03:51:00,66.6,66.0,29.79,ESE,112,0.0,0.0,98,0.00,,---,0.00,VWS V14.01,2013-03-22 01:51:00,
2013-03-22 03:55:00,66.6,66.0,29.79,NNE,22,0.0,0.0,98,0.00,,---,0.00,VWS V14.01,2013-03-22 01:55:00,
2013-03-22 03:57:00,66.6,66.0,29.76,ENE,68,0.0,0.0,98,0.00,,---,0.00,VWS V14.01,2013-03-22 01:57:00,
2013-03-22 04:01:00,66.4,65.8,29.76,East,90,0.0,0.0,98,0.00,,---,0.00,VWS V14.01,2013-03-22 02:01:00,
2013-03-22 04:04:00,66.4,65.8,29.76,ESE,112,0.0,0.0,98,0.00,,---,0.00,VWS V14.01,2013-03-22 02:04:00,
2013-03-22 04:05:00,66.4,65.8,29.76,ESE,112,0.0,0.0,98,0.00,,---,0.00,VWS V14.01,2013-03-22 02:05:00,
2013-03-22 04:09:00,66.4,65.8,29.76,ESE,112,0.0,0.0,98,0.00,,---,0.00,VWS V14.01,2013-03-22 02:09:00,
2013-03-22 04:10:00,66.4,65.8,29.76,ESE,112,0.0,0.0,98,0.00,,---,0.00,VWS V14.01,2013-03-22 02:10:00,
2013-03-22 04:13:00,66.4,65.8,29.76,ESE,112,0.0,0.0,98,0.00,,---,0.00,VWS V14.01,2013-03-22 02:13:00,
2013-03-22 04:15:00,66.4,65.8,29.76,ESE,112,0.0,0.0,98,0.00,,---,0.00,VWS V14.01,2013-03-22 02:15:00,
2013-03-22 04:18:00,66.4,65.8,29.76,ESE,112,0.0,0.0,98,0.00,,---,0.00,VWS V14.01,2013-03-22 02:18:00,
2013-03-22 04:20:00,66.6,66.0,29.76,ESE,112,0.0,0.0,98,0.00,,---,0.00,VWS V14.01,2013-03-22 02:20:00,
2013-03-22 04:24:00,66.6,66.0,29.76,ENE,68,0.0,0.0,98,0.00,,---,0.00,VWS V14.01,2013-03-22 02:24:00,
2013-03-22 04:27:00,66.6,66.0,29.76,East,90,0.0,0.0,98,0.00,,---,0.00,VWS V14.01,2013-03-22 02:27:00,
2013-03-22 04:30:00,66.6,66.0,29.76,NNE,22,0.0,0.0,98,0.00,,---,0.00,VWS V14.01,2013-03-22 02:30:00,
2013-03-22 04:33:00,66.4,65.8,29.76,ENE,68,0.0,0.0,98,0.00,,---,0.00,VWS V14.01,2013-03-22 02:33:00,
2013-03-22 04:34:00,66.4,65.8,29.76,NE,45,0.0,0.0,98,0.00,,---,0.00,VWS V14.01,2013-03-22 02:34:00,
2013-03-22 04:36:00,66.4,65.8,29.76,ENE,68,0.0,0.0,98,0.00,,---,0.00,VWS V14.01,2013-03-22 02:36:00,
2013-03-22 04:39:00,66.4,65.8,29.76,ESE,112,0.0,0.0,98,0.00,,---,0.00,VWS V14.01,2013-03-22 02:39:00,
2013-03-22 04:43:00,66.4,65.8,29.76,NNE,22,0.0,0.0,98,0.00,,---,0.00,VWS V14.01,2013-03-22 02:43:00,
2013-03-22 04:45:00,66.4,65.8,29.76,ENE,68,0.0,0.0,98,0.00,,---,0.00,VWS V14.01,2013-03-22 02:45:00,
2013-03-22 04:46:00,66.4,65.8,29.76,ENE,68,0.0,0.0,98,0.00,,---,0.00,VWS V14.01,2013-03-22 02:46:00,
2013-03-22 04:51:00,66.2,65.6,29.76,ENE,68,0.0,0.0,98,0.00,,---,0.00,VWS V14.01,2013-03-22 02:51:00,
2013-03-22 04:54:00,66.2,65.6,29.76,ENE,68,0.0,0.0,98,0.00,,---,0.00,VWS V14.01,2013-03-22 02:54:00,
2013-03-22 04:57:00,66.2,65.6,29.76,East,90,0.0,0.0,98,0.00,,---,0.00,VWS V14.01,2013-03-22 02:57:00,
2013-03-22 04:58:00,66.2,65.6,29.76,East,90,0.0,0.0,98,0.00,,---,0.00,VWS V14.01,2013-03-22 02:58:00,
2013-03-22 05:03:00,66.2,65.6,29.76,ENE,68,0.0,0.0,98,0.00,,---,0.00,VWS V14.01,2013-03-22 03:03:00,
2013-03-22 05:04:00,66.2,65.6,29.76,East,90,0.0,0.0,98,0.00,,---,0.00,VWS V14.01,2013-03-22 03:04:00,
2013-03-22 05:05:00,66.2,65.6,29.76,ENE,68,0.0,0.0,98,0.00,,---,0.00,VWS V14.01,2013-03-22 03:05:00,
2013-03-22 05:09:00,66.2,65.6,29.76,ESE,112,0.0,0.0,98,0.00,,---,0.00,VWS V14.01,2013-03-22 03:09:00,
2013-03-22 05:10:00,66.2,65.6,29.76,ESE,112,0.0,0.0,98,0.00,,---,0.00,VWS V14.01,2013-03-22 03:10:00,
2013-03-22 05:15:00,66.2,65.6,29.76,NE,45,0.0,0.0,98,0.00,,---,0.00,VWS V14.01,2013-03-22 03:15:00,
2013-03-22 05:16:00,66.0,65.4,29.76,NNW,338,0.0,0.0,98,0.00,,---,0.00,VWS V14.01,2013-03-22 03:16:00,
2013-03-22 05:19:00,66.0,65.4,29.76,North,0,0.0,0.0,98,0.00,,---,0.00,VWS V14.01,2013-03-22 03:19:00,
2013-03-22 05:21:00,66.0,65.4,29.76,NNW,338,0.0,0.0,98,0.00,,---,0.00,VWS V14.01,2013-03-22 03:21:00,
2013-03-22 05:22:00,66.0,65.4,29.76,North,0,0.0,0.0,98,0.00,,---,0.00,VWS V14.01,2013-03-22 03:22:00,
2013-03-22 05:26:00,66.0,65.4,29.76,NNW,338,0.0,0.0,98,0.00,,---,0.00,VWS V14.01,2013-03-22 03:26:00,
2013-03-22 05:27:00,66.0,65.4,29.76,NNW,338,0.0,0.0,98,0.00,,---,0.00,VWS V14.01,2013-03-22 03:27:00,
2013-03-22 05:29:00,66.0,65.4,29.76,NNW,338,0.0,0.0,98,0.00,,---,0.00,VWS V14.01,2013-03-22 03:29:00,
2013-03-22 05:31:00,66.0,65.4,29.76,WNW,292,0.0,0.0,98,0.00,,---,0.00,VWS V14.01,2013-03-22 03:31:00,
2013-03-22 05:34:00,66.0,65.4,29.76,North,0,0.0,0.0,98,0.00,,---,0.00,VWS V14.01,2013-03-22 03:34:00,
2013-03-22 05:36:00,65.8,65.3,29.76,ENE,68,0.0,0.0,98,0.00,,---,0.00,VWS V14.01,2013-03-22 03:36:00,
2013-03-22 05:37:00,65.8,65.3,29.76,NNW,338,0.0,0.0,98,0.00,,---,0.00,VWS V14.01,2013-03-22 03:37:00,
2013-03-22 05:38:00,65.8,65.3,29.76,North,0,0.0,0.0,98,0.00,,---,0.00,VWS V14.01,2013-03-22 03:38:00,
2013-03-22 05:40:00,65.7,65.1,29.76,NNW,338,0.0,0.0,98,0.00,,---,0.00,VWS V14.01,2013-03-22 03:40:00,
2013-03-22 05:43:00,65.7,65.1,29.76,NNW,338,0.0,0.0,98,0.00,,---,0.00,VWS V14.01,2013-03-22 03:43:00,
2013-03-22 05:46:00,65.5,64.9,29.76,NNW,338,0.0,0.0,98,0.00,,---,0.00,VWS V14.01,2013-03-22 03:46:00,
2013-03-22 05:48:00,65.3,64.7,29.76,NNW,338,0.0,0.0,98,0.00,,---,0.00,VWS V14.01,2013-03-22 03:48:00,
2013-03-22 05:49:00,65.3,64.7,29.76,NNW,338,0.0,0.0,98,0.00,,---,0.00,VWS V14.01,2013-03-22 03:49:00,
2013-03-22 05:53:00,65.1,64.5,29.76,NW,315,0.0,0.0,98,0.00,,---,0.00,VWS V14.01,2013-03-22 03:53:00,
2013-03-22 05:54:00,64.8,64.2,29.76,NW,315,0.0,0.0,98,0.00,,---,0.00,VWS V14.01,2013-03-22 03:54:00,
2013-03-22 05:55:00,64.6,64.0,29.76,NW,315,0.0,0.0,98,0.00,,---,0.00,VWS V14.01,2013-03-22 03:55:00,
2013-03-22 05:57:00,64.6,64.0,29.74,NW,315,0.0,0.0,98,0.00,,---,0.00,VWS V14.01,2013-03-22 03:57:00,
2013-03-22 05:59:00,64.4,63.8,29.74,WNW,292,0.0,0.0,98,0.00,,---,0.00,VWS V14.01,2013-03-22 03:59:00,
2013-03-22 06:00:00,64.4,63.8,29.74,NNW,338,0.0,0.0,98,0.00,,---,0.00,VWS V14.01,2013-03-22 04:00:00,
2013-03-22 06:01:00,64.4,63.8,29.74,NNW,338,0.0,0.0,98,0.00,,---,0.00,VWS V14.01,2013-03-22 04:01:00,
2013-03-22 06:03:00,64.4,63.8,29.74,NNW,338,0.0,0.0,98,0.00,,---,0.00,VWS V14.01,2013-03-22 04:03:00,
2013-03-22 06:07:00,64.4,63.8,29.74,NW,315,0.0,0.0,98,0.00,,---,0.00,VWS V14.01,2013-03-22 04:07:00,
2013-03-22 06:08:00,64.4,63.8,29.74,NNW,338,0.0,0.0,98,0.00,,---,0.00,VWS V14.01,2013-03-22 04:08:00,
2013-03-22 06:09:00,64.2,63.7,29.74,NW,315,0.0,0.0,98,0.00,,---,0.00,VWS V14.01,2013-03-22 04:09:00,
2013-03-22 06:14:00,64.2,63.7,29.74,NW,315,0.0,0.0,98,0.00,,---,0.00,VWS V14.01,2013-03-22 04:14:00,
2013-03-22 06:15:00,64.2,63.7,29.74,NW,315,0.0,0.0,98,0.00,,---,0.00,VWS V14.01,2013-03-22 04:15:00,
2013-03-22 06:16:00,64.2,63.7,29.74,NNW,338,0.0,0.0,98,0.00,,---,0.00,VWS V14.01,2013-03-22 04:16:00,
2013-03-22 06:21:00,64.2,63.7,29.74,NNW,338,0.0,0.0,98,0.00,,---,0.00,VWS V14.01,2013-03-22 04:21:00,
2013-03-22 06:22:00,64.2,63.7,29.74,NNW,338,0.0,0.0,98,0.00,,---,0.00,VWS V14.01,2013-03-22 04:22:00,
2013-03-22 06:25:00,64.2,63.7,29.74,NNW,338,0.0,0.0,98,0.00,,---,0.00,VWS V14.01,2013-03-22 04:25:00,
2013-03-22 06:29:00,64.2,63.7,29.74,NNW,338,0.0,0.0,98,0.00,,---,0.00,VWS V14.01,2013-03-22 04:29:00,
2013-03-22 06:32:00,64.2,63.7,29.74,NNW,338,0.0,0.0,98,0.00,,---,0.00,VWS V14.01,2013-03-22 04:32:00,
2013-03-22 06:34:00,64.0,63.5,29.74,North,0,0.0,0.0,98,0.00,,---,0.00,VWS V14.01,2013-03-22 04:34:00,
2013-03-22 06:35:00,64.0,63.5,29.74,NNW,338,0.0,0.0,98,0.00,,---,0.00,VWS V14.01,2013-03-22 04:35:00,
2013-03-22 06:37:00,64.0,63.5,29.74,NNW,338,0.0,0.0,98,0.00,,---,0.00,VWS V14.01,2013-03-22 04:37:00,
2013-03-22 06:39:00,64.0,63.5,29.74,NNW,338,0.0,0.0,98,0.00,,---,0.00,VWS V14.01,2013-03-22 04:39:00,
2013-03-22 06:41:00,64.0,63.5,29.74,NNW,338,0.0,0.0,98,0.00,,---,0.00,VWS V14.01,2013-03-22 04:41:00,
2013-03-22 06:42:00,64.0,63.5,29.74,NNE,22,0.0,0.0,98,0.00,,---,0.00,VWS V14.01,2013-03-22 04:42:00,
2013-03-22 06:44:00,64.2,63.7,29.74,NNW,338,0.0,0.0,98,0.00,,---,0.00,VWS V14.01,2013-03-22 04:44:00,
2013-03-22 06:49:00,64.4,63.8,29.74,NNW,338,0.0,0.0,98,0.00,,---,0.00,VWS V14.01,2013-03-22 04:49:00,
2013-03-22 06:51:00,64.4,63.8,29.74,NNW,338,0.0,0.0,98,0.00,,---,0.00,VWS V14.01,2013-03-22 04:51:00,
2013-03-22 06:56:00,64.8,64.2,29.74,NNW,338,0.0,0.0,98,0.00,,---,0.00,VWS V14.01,2013-03-22 04:56:00,
2013-03-22 06:57:00,64.8,64.2,29.74,NNW,338,0.0,0.0,98,0.00,,---,0.00,VWS V14.01,2013-03-22 04:57:00,
2013-03-22 06:58:00,64.9,64.4,29.74,WNW,292,0.0,0.0,98,0.00,,---,0.00,VWS V14.01,2013-03-22 04:58:00,
2013-03-22 07:02:00,65.3,64.7,29.74,WNW,292,0.0,0.0,98,0.00,,---,0.00,VWS V14.01,2013-03-22 05:02:00,
2013-03-22 07:03:00,65.5,64.9,29.74,NNW,338,0.0,0.0,98,0.00,,---,0.00,VWS V14.01,2013-03-22 05:03:00,
2013-03-22 07:05:00,65.7,65.1,29.74,WNW,292,0.0,0.0,98,0.00,,---,0.00,VWS V14.01,2013-03-22 05:05:00,
2013-03-22 07:08:00,65.8,65.3,29.74,WNW,292,0.0,0.0,98,0.00,,---,0.00,VWS V14.01,2013-03-22 05:08:00,
2013-03-22 07:09:00,66.0,65.4,29.74,WNW,292,0.0,0.0,98,0.00,,---,0.00,VWS V14.01,2013-03-22 05:09:00,
2013-03-22 07:13:00,66.4,65.8,29.74,WNW,292,0.0,0.0,98,0.00,,---,0.00,VWS V14.01,2013-03-22 05:13:00,
2013-03-22 07:14:00,66.4,65.8,29.74,WNW,292,0.0,0.0,98,0.00,,---,0.00,VWS V14.01,2013-03-22 05:14:00,
2013-03-22 07:15:00,66.4,65.8,29.74,NW,315,0.0,0.0,98,0.00,,---,0.00,VWS V14.01,2013-03-22 05:15:00,
2013-03-22 07:20:00,66.9,66.3,29.74,NW,315,0.0,0.0,98,0.00,,---,0.00,VWS V14.01,2013-03-22 05:20:00,
2013-03-22 07:21:00,66.9,66.3,29.74,WNW,292,0.0,0.0,98,0.00,,---,0.00,VWS V14.01,2013-03-22 05:21:00,
2013-03-22 07:24:00,67.3,66.7,29.74,WNW,292,0.0,0.0,98,0.00,,---,0.00,VWS V14.01,2013-03-22 05:24:00,
2013-03-22 07:25:00,67.3,66.7,29.74,WNW,292,0.0,0.0,98,0.00,,---,0.00,VWS V14.01,2013-03-22 05:25:00,
2013-03-22 07:27:00,67.6,67.1,29.74,WNW,292,0.0,0.0,98,0.00,,---,0.00,VWS V14.01,2013-03-22 05:27:00,
2013-03-22 07:30:00,67.8,67.2,29.74,WNW,292,0.0,0.0,98,0.00,,---,0.00,VWS V14.01,2013-03-22 05:30:00,
2013-03-22 07:32:00,68.0,67.4,29.74,WNW,292,0.0,0.0,98,0.00,,---,0.00,VWS V14.01,2013-03-22 05:32:00,
2013-03-22 07:35:00,68.2,67.6,29.74,WNW,292,0.0,0.0,98,0.00,,---,0.00,VWS V14.01,2013-03-22 05:35:00,
2013-03-22 07:37:00,68.4,67.8,29.74,WNW,292,0.0,0.0,98,0.00,,---,0.00,VWS V14.01,2013-03-22 05:37:00,
2013-03-22 07:38:00,68.9,68.3,29.74,WNW,292,0.0,0.0,98,0.00,,---,0.00,VWS V14.01,2013-03-22 05:38:00,
2013-03-22 07:39:00,68.7,68.1,29.74,NW,315,0.0,0.0,98,0.00,,---,0.00,VWS V14.01,2013-03-22 05:39:00,
2013-03-22 07:42:00,69.3,68.7,29.74,WNW,292,0.0,0.0,98,0.00,,---,0.00,VWS V14.01,2013-03-22 05:42:00,
2013-03-22 07:44:00,69.4,68.8,29.74,WNW,292,0.0,0.0,98,0.00,,---,0.00,VWS V14.01,2013-03-22 05:44:00,
2013-03-22 07:46:00,69.8,69.2,29.74,WNW,292,0.0,0.0,98,0.00,,---,0.00,VWS V14.01,2013-03-22 05:46:00,
2013-03-22 07:48:00,70.0,69.4,29.74,WNW,292,0.0,0.0,98,0.00,,---,0.00,VWS V14.01,2013-03-22 05:48:00,
2013-03-22 07:49:00,70.0,69.4,29.74,WNW,292,0.0,0.0,98,0.00,,---,0.00,VWS V14.01,2013-03-22 05:49:00,
2013-03-22 07:51:00,70.7,70.1,29.74,WNW,292,0.0,0.0,98,0.00,,---,0.00,VWS V14.01,2013-03-22 05:51:00,
2013-03-22 07:54:00,70.9,70.3,29.74,WNW,292,0.0,0.0,98,0.00,,---,0.00,VWS V14.01,2013-03-22 05:54:00,
2013-03-22 07:55:00,70.7,70.1,29.74,WNW,292,0.0,0.0,98,0.00,,---,0.00,VWS V14.01,2013-03-22 05:55:00,
2013-03-22 07:57:00,71.6,71.0,29.74,WNW,292,0.0,0.0,98,0.00,,---,0.00,VWS V14.01,2013-03-22 05:57:00,
2013-03-22 08:02:00,71.6,70.7,29.74,NW,315,0.0,0.0,97,0.00,,---,0.00,VWS V14.01,2013-03-22 06:02:00,
2013-03-22 08:03:00,71.2,70.3,29.74,NNW,338,0.0,0.0,97,0.00,,---,0.00,VWS V14.01,2013-03-22 06:03:00,
2013-03-22 08:04:00,71.6,70.4,29.74,NW,315,0.0,0.0,96,0.00,,---,0.00,VWS V14.01,2013-03-22 06:04:00,
2013-03-22 08:05:00,72.1,70.9,29.74,NW,315,0.0,0.0,96,0.00,,---,0.00,VWS V14.01,2013-03-22 06:05:00,
2013-03-22 08:09:00,73.2,72.0,29.74,WNW,292,0.0,0.0,96,0.00,,---,0.00,VWS V14.01,2013-03-22 06:09:00,
2013-03-22 08:10:00,73.0,71.8,29.74,WNW,292,0.0,0.0,96,0.00,,---,0.00,VWS V14.01,2013-03-22 06:10:00,
2013-03-22 08:12:00,73.8,72.6,29.74,WNW,292,0.0,0.0,96,0.00,,---,0.00,VWS V14.01,2013-03-22 06:12:00,
2013-03-22 08:14:00,73.8,72.6,29.74,WNW,292,0.0,0.0,96,0.00,,---,0.00,VWS V14.01,2013-03-22 06:14:00,
2013-03-22 08:15:00,74.5,73.3,29.74,WNW,292,0.0,0.0,96,0.00,,---,0.00,VWS V14.01,2013-03-22 06:15:00,
2013-03-22 08:18:00,75.6,74.7,29.74,WNW,292,0.0,0.0,97,0.00,,---,0.00,VWS V14.01,2013-03-22 06:18:00,
2013-03-22 08:21:00,75.9,75.0,29.74,WNW,292,0.0,0.0,97,0.00,,---,0.00,VWS V14.01,2013-03-22 06:21:00,
2013-03-22 08:25:00,76.8,75.3,29.74,WNW,292,0.0,0.0,95,0.00,,---,0.00,VWS V14.01,2013-03-22 06:25:00,
2013-03-22 08:27:00,77.2,75.3,29.74,SE,135,0.0,0.0,94,0.00,,---,0.00,VWS V14.01,2013-03-22 06:27:00,
2013-03-22 08:30:00,75.6,72.8,29.74,SSW,202,0.0,0.0,91,0.00,,---,0.00,VWS V14.01,2013-03-22 06:30:00,
2013-03-22 08:31:00,75.9,72.8,29.74,SSW,202,0.0,0.0,90,0.00,,---,0.00,VWS V14.01,2013-03-22 06:31:00,
2013-03-22 08:33:00,76.1,72.3,29.74,SSW,202,0.0,0.0,88,0.00,,---,0.00,VWS V14.01,2013-03-22 06:33:00,
2013-03-22 08:35:00,76.1,72.3,29.74,SSW,202,0.0,0.0,88,0.00,,---,0.00,VWS V14.01,2013-03-22 06:35:00,
2013-03-22 08:37:00,75.6,70.4,29.74,SSW,202,0.0,0.0,84,0.00,,---,0.00,VWS V14.01,2013-03-22 06:37:00,
2013-03-22 08:38:00,75.9,70.4,29.74,SSW,202,0.0,0.0,83,0.00,,---,0.00,VWS V14.01,2013-03-22 06:38:00,
2013-03-22 08:40:00,76.5,71.3,29.74,SSW,202,0.0,0.0,84,0.00,,---,0.00,VWS V14.01,2013-03-22 06:40:00,
2013-03-22 08:42:00,76.5,70.9,29.76,SSW,202,0.0,0.0,83,0.00,,---,0.00,VWS V14.01,2013-03-22 06:42:00,
2013-03-22 08:43:00,76.6,71.4,29.76,SSW,202,0.0,0.0,84,0.00,,---,0.00,VWS V14.01,2013-03-22 06:43:00,
2013-03-22 08:45:00,76.6,70.4,29.76,SSW,202,0.0,0.0,81,0.00,,---,0.00,VWS V14.01,2013-03-22 06:45:00,
2013-03-22 08:46:00,76.6,70.0,29.76,SSW,202,0.0,0.0,80,0.00,,---,0.00,VWS V14.01,2013-03-22 06:46:00,
2013-03-22 08:48:00,76.8,69.4,29.76,SSE,158,0.0,0.0,78,0.00,,---,0.00,VWS V14.01,2013-03-22 06:48:00,
2013-03-22 08:52:00,77.2,68.7,29.76,SE,135,0.0,0.0,75,0.00,,---,0.00,VWS V14.01,2013-03-22 06:52:00,
2013-03-22 08:57:00,77.9,66.9,29.74,SSE,158,0.0,0.0,69,0.00,,---,0.00,VWS V14.01,2013-03-22 06:57:00,
2013-03-22 08:58:00,77.9,66.9,29.74,SSE,158,0.0,0.0,69,0.00,,---,0.00,VWS V14.01,2013-03-22 06:58:00,
2013-03-22 09:02:00,77.7,61.8,29.74,ESE,112,0.0,0.0,58,0.00,,---,0.00,VWS V14.01,2013-03-22 07:02:00,
2013-03-22 09:03:00,77.9,61.5,29.74,SE,135,0.0,0.0,57,0.00,,---,0.00,VWS V14.01,2013-03-22 07:03:00,
2013-03-22 09:04:00,78.1,63.1,29.74,SE,135,0.0,0.0,60,0.00,,---,0.00,VWS V14.01,2013-03-22 07:04:00,
2013-03-22 09:05:00,78.1,63.1,29.74,SE,135,0.0,0.0,60,0.00,,---,0.00,VWS V14.01,2013-03-22 07:05:00,
2013-03-22 09:08:00,78.1,61.6,29.74,ESE,112,0.0,0.0,57,0.00,,---,0.00,VWS V14.01,2013-03-22 07:08:00,
2013-03-22 09:09:00,78.1,59.0,29.74,ESE,112,0.0,0.0,52,0.00,,---,0.00,VWS V14.01,2013-03-22 07:09:00,
2013-03-22 09:10:00,77.7,55.9,29.74,East,90,0.0,0.0,47,0.00,,---,0.00,VWS V14.01,2013-03-22 07:10:00,
2013-03-22 09:11:00,77.7,55.9,29.74,ESE,112,0.0,0.0,47,0.00,,---,0.00,VWS V14.01,2013-03-22 07:11:00,
2013-03-22 09:14:00,77.7,55.9,29.74,ENE,68,0.0,0.0,47,0.00,,---,0.00,VWS V14.01,2013-03-22 07:14:00,
2013-03-22 09:15:00,77.7,55.9,29.74,ENE,68,0.0,0.0,47,0.00,,---,0.00,VWS V14.01,2013-03-22 07:15:00,
2013-03-22 09:18:00,78.3,55.8,29.74,ENE,68,0.0,0.0,46,0.00,,---,0.00,VWS V14.01,2013-03-22 07:18:00,
2013-03-22 09:19:00,78.1,56.2,29.74,NNE,22,0.0,0.0,47,0.00,,---,0.00,VWS V14.01,2013-03-22 07:19:00,
2013-03-22 09:22:00,78.3,57.5,29.74,East,90,0.0,0.0,49,0.00,,---,0.00,VWS V14.01,2013-03-22 07:22:00,
2013-03-22 09:26:00,78.3,54.6,29.74,ESE,112,0.0,0.0,44,0.00,,---,0.00,VWS V14.01,2013-03-22 07:26:00,
2013-03-22 09:28:00,78.3,53.3,29.74,East,90,0.0,0.0,42,0.00,,---,0.00,VWS V14.01,2013-03-22 07:28:00,
2013-03-22 09:34:00,78.4,53.5,29.74,NE,45,0.0,0.0,42,0.00,,---,0.00,VWS V14.01,2013-03-22 07:34:00,
2013-03-22 09:36:00,79.0,51.2,29.74,East,90,0.0,0.0,38,0.00,,---,0.00,VWS V14.01,2013-03-22 07:36:00,
2013-03-22 09:40:00,79.5,47.9,29.74,ENE,68,0.0,0.0,33,0.00,,---,0.00,VWS V14.01,2013-03-22 07:40:00,
2013-03-22 09:41:00,79.5,48.7,29.74,ESE,112,0.0,0.0,34,0.00,,---,0.00,VWS V14.01,2013-03-22 07:41:00,
2013-03-22 09:42:00,79.5,48.7,29.74,East,90,0.0,0.0,34,0.00,,---,0.00,VWS V14.01,2013-03-22 07:42:00,
2013-03-22 09:45:00,79.3,47.0,29.74,ESE,112,0.0,0.0,32,0.00,,---,0.00,VWS V14.01,2013-03-22 07:45:00,
2013-03-22 09:47:00,79.5,46.3,29.74,ESE,112,0.0,0.0,31,0.00,,---,0.00,VWS V14.01,2013-03-22 07:47:00,
2013-03-22 09:50:00,79.2,46.0,29.74,ESE,112,0.0,0.0,31,0.00,,---,0.00,VWS V14.01,2013-03-22 07:50:00,
2013-03-22 09:51:00,79.3,46.1,29.74,ENE,68,0.0,0.0,31,0.00,,---,0.00,VWS V14.01,2013-03-22 07:51:00,
2013-03-22 09:55:00,79.2,46.0,29.74,ENE,68,0.0,0.0,31,0.00,,---,0.00,VWS V14.01,2013-03-22 07:55:00,
2013-03-22 09:57:00,79.0,45.8,29.74,East,90,0.0,0.0,31,0.00,,---,0.00,VWS V14.01,2013-03-22 07:57:00,
2013-03-22 09:59:00,79.0,45.8,29.74,ENE,68,0.0,0.0,31,0.00,,---,0.00,VWS V14.01,2013-03-22 07:59:00,
2013-03-22 10:01:00,79.0,45.8,29.74,ENE,68,0.0,0.0,31,0.00,,---,0.00,VWS V14.01,2013-03-22 08:01:00,
2013-03-22 10:03:00,79.2,46.0,29.74,NNE,22,0.0,0.0,31,0.00,,---,0.00,VWS V14.01,2013-03-22 08:03:00,
2013-03-22 10:06:00,79.2,46.0,29.74,East,90,0.0,0.0,31,0.00,,---,0.00,VWS V14.01,2013-03-22 08:06:00,
2013-03-22 10:08:00,79.2,46.0,29.74,ESE,112,0.0,0.0,31,0.00,,---,0.00,VWS V14.01,2013-03-22 08:08:00,
2013-03-22 10:11:00,79.3,46.1,29.74,ENE,68,0.0,0.0,31,0.00,,---,0.00,VWS V14.01,2013-03-22 08:11:00,
2013-03-22 10:12:00,79.2,46.0,29.74,ENE,68,0.0,0.0,31,0.00,,---,0.00,VWS V14.01,2013-03-22 08:12:00,
2013-03-22 10:13:00,79.2,46.0,29.74,ENE,68,0.0,0.0,31,0.00,,---,0.00,VWS V14.01,2013-03-22 08:13:00,
2013-03-22 10:17:00,79.2,46.0,29.74,NE,45,0.0,0.0,31,0.00,,---,0.00,VWS V14.01,2013-03-22 08:17:00,
2013-03-22 10:18:00,78.6,45.5,29.74,ESE,112,0.0,0.0,31,0.00,,---,0.00,VWS V14.01,2013-03-22 08:18:00,
2013-03-22 10:20:00,78.6,45.5,29.74,ENE,68,0.0,0.0,31,0.00,,---,0.00,VWS V14.01,2013-03-22 08:20:00,
2013-03-22 10:23:00,78.4,46.2,29.74,NE,45,0.0,0.0,32,0.00,,---,0.00,VWS V14.01,2013-03-22 08:23:00,
2013-03-22 10:25:00,79.0,45.8,29.74,NNW,338,0.0,0.0,31,0.00,,---,0.00,VWS V14.01,2013-03-22 08:25:00,
2013-03-22 10:26:00,79.2,46.0,29.74,NE,45,0.0,0.0,31,0.00,,---,0.00,VWS V14.01,2013-03-22 08:26:00,
2013-03-22 10:27:00,79.0,45.8,29.74,ENE,68,0.0,0.0,31,0.00,,---,0.00,VWS V14.01,2013-03-22 08:27:00,
2013-03-22 10:29:00,78.8,45.6,29.74,ENE,68,0.0,0.0,31,0.00,,---,0.00,VWS V14.01,2013-03-22 08:29:00,
2013-03-22 10:30:00,78.8,44.8,29.74,ENE,68,0.0,0.0,30,0.00,,---,0.00,VWS V14.01,2013-03-22 08:30:00,
2013-03-22 10:33:00,78.6,45.5,29.74,ESE,112,0.0,0.0,31,0.00,,---,0.00,VWS V14.01,2013-03-22 08:33:00,
2013-03-22 10:35:00,79.5,46.3,29.74,East,90,0.0,0.0,31,0.00,,---,0.00,VWS V14.01,2013-03-22 08:35:00,
2013-03-22 10:37:00,79.7,45.6,29.74,ENE,68,0.0,0.0,30,0.00,,---,0.00,VWS V14.01,2013-03-22 08:37:00,
2013-03-22 10:39:00,79.9,45.7,29.74,ENE,68,0.0,0.0,30,0.00,,---,0.00,VWS V14.01,2013-03-22 08:39:00,
2013-03-22 10:41:00,79.9,45.7,29.76,East,90,0.0,0.0,30,0.00,,---,0.00,VWS V14.01,2013-03-22 08:41:00,
2013-03-22 10:42:00,79.7,45.6,29.76,ENE,68,0.0,0.0,30,0.00,,---,0.00,VWS V14.01,2013-03-22 08:42:00,
2013-03-22 10:44:00,79.3,45.2,29.76,NE,45,0.0,0.0,30,0.00,,---,0.00,VWS V14.01,2013-03-22 08:44:00,
2013-03-22 10:45:00,79.7,45.6,29.76,North,0,0.0,0.0,30,0.00,,---,0.00,VWS V14.01,2013-03-22 08:45:00,
2013-03-22 10:48:00,79.9,45.7,29.76,East,90,0.0,0.0,30,0.00,,---,0.00,VWS V14.01,2013-03-22 08:48:00,
2013-03-22 10:49:00,80.1,45.9,29.76,ENE,68,0.0,0.0,30,0.00,,---,0.00,VWS V14.01,2013-03-22 08:49:00,
2013-03-22 10:50:00,79.9,45.7,29.76,ENE,68,0.0,0.0,30,0.00,,---,0.00,VWS V14.01,2013-03-22 08:50:00,
2013-03-22 10:53:00,79.7,45.6,29.76,ENE,68,0.0,0.0,30,0.00,,---,0.00,VWS V14.01,2013-03-22 08:53:00,
2013-03-22 10:54:00,79.9,45.7,29.76,East,90,0.0,0.0,30,0.00,,---,0.00,VWS V14.01,2013-03-22 08:54:00,
2013-03-22 10:55:00,80.1,45.9,29.76,ENE,68,0.0,0.0,30,0.00,,---,0.00,VWS V14.01,2013-03-22 08:55:00,
2013-03-22 10:56:00,80.1,45.9,29.74,East,90,0.0,0.0,30,0.00,,---,0.00,VWS V14.01,2013-03-22 08:56:00,
2013-03-22 11:00:00,80.2,46.0,29.74,ENE,68,0.0,0.0,30,0.00,,---,0.00,VWS V14.01,2013-03-22 09:00:00,
2013-03-22 11:01:00,80.2,46.0,29.74,NNE,22,0.0,0.0,30,0.00,,---,0.00,VWS V14.01,2013-03-22 09:01:00,
2013-03-22 11:02:00,80.2,46.0,29.74,ENE,68,0.0,0.0,30,0.00,,---,0.00,VWS V14.01,2013-03-22 09:02:00,
2013-03-22 11:06:00,81.0,46.6,29.74,ENE,68,0.0,0.0,30,0.00,,---,0.00,VWS V14.01,2013-03-22 09:06:00,
2013-03-22 11:07:00,81.1,46.8,29.74,ENE,68,0.0,0.0,30,0.00,,---,0.00,VWS V14.01,2013-03-22 09:07:00,
2013-03-22 11:08:00,81.3,47.0,29.74,East,90,0.0,0.0,30,0.00,,---,0.00,VWS V14.01,2013-03-22 09:08:00,
2013-03-22 11:12:00,81.1,46.8,29.74,ENE,68,0.0,0.0,30,0.00,,---,0.00,VWS V14.01,2013-03-22 09:12:00,
2013-03-22 11:14:00,81.3,47.0,29.74,South,180,0.0,0.0,30,0.00,,---,0.00,VWS V14.01,2013-03-22 09:14:00,
2013-03-22 11:17:00,81.1,46.8,29.74,ESE,112,0.0,0.0,30,0.00,,---,0.00,VWS V14.01,2013-03-22 09:17:00,
2013-03-22 11:18:00,81.0,45.8,29.74,ESE,112,0.0,0.0,29,0.00,,---,0.00,VWS V14.01,2013-03-22 09:18:00,
2013-03-22 11:20:00,81.1,45.9,29.74,East,90,0.0,0.0,29,0.00,,---,0.00,VWS V14.01,2013-03-22 09:20:00,
2013-03-22 11:22:00,81.7,47.3,29.74,ESE,112,0.0,0.0,30,0.00,,---,0.00,VWS V14.01,2013-03-22 09:22:00,
2013-03-22 11:24:00,82.2,47.7,29.74,ESE,112,0.0,0.0,30,0.00,,---,0.00,VWS V14.01,2013-03-22 09:24:00,
2013-03-22 11:25:00,81.9,47.4,29.74,ESE,112,0.0,0.0,30,0.00,,---,0.00,VWS V14.01,2013-03-22 09:25:00,
2013-03-22 11:26:00,81.7,48.1,29.74,ESE,112,0.0,0.0,31,0.00,,---,0.00,VWS V14.01,2013-03-22 09:26:00,
2013-03-22 11:28:00,81.5,48.0,29.74,SE,135,0.0,0.0,31,0.00,,---,0.00,VWS V14.01,2013-03-22 09:28:00,
2013-03-22 11:31:00,81.1,47.7,29.74,East,90,0.0,0.0,31,0.00,,---,0.00,VWS V14.01,2013-03-22 09:31:00,
2013-03-22 11:32:00,81.1,47.7,29.74,SE,135,0.0,0.0,31,0.00,,---,0.00,VWS V14.01,2013-03-22 09:32:00,
2013-03-22 11:34:00,80.6,47.2,29.74,ESE,112,0.0,0.0,31,0.00,,---,0.00,VWS V14.01,2013-03-22 09:34:00,
2013-03-22 11:36:00,80.8,47.4,29.74,SE,135,0.0,0.0,31,0.00,,---,0.00,VWS V14.01,2013-03-22 09:36:00,
2013-03-22 11:40:00,80.6,47.2,29.74,ESE,112,0.0,0.0,31,0.00,,---,0.00,VWS V14.01,2013-03-22 09:40:00,
2013-03-22 11:43:00,80.4,47.0,29.74,ESE,112,0.0,0.0,31,0.00,,---,0.00,VWS V14.01,2013-03-22 09:43:00,
2013-03-22 11:44:00,80.6,47.2,29.74,ENE,68,0.0,0.0,31,0.00,,---,0.00,VWS V14.01,2013-03-22 09:44:00,
2013-03-22 11:49:00,80.6,47.2,29.74,ESE,112,0.0,0.0,31,0.00,,---,0.00,VWS V14.01,2013-03-22 09:49:00,
2013-03-22 11:51:00,80.4,47.0,29.74,East,90,0.0,0.0,31,0.00,,---,0.00,VWS V14.01,2013-03-22 09:51:00,
2013-03-22 11:53:00,80.4,47.0,29.74,East,90,0.0,0.0,31,0.00,,---,0.00,VWS V14.01,2013-03-22 09:53:00,
2013-03-22 11:57:00,80.1,46.7,29.74,ESE,112,0.0,0.0,31,0.00,,---,0.00,VWS V14.01,2013-03-22 09:57:00,
2013-03-22 11:58:00,80.4,47.0,29.74,ESE,112,0.0,0.0,31,0.00,,---,0.00,VWS V14.01,2013-03-22 09:58:00,
2013-03-22 12:00:00,80.8,47.4,29.74,ESE,112,0.0,0.0,31,0.00,,---,0.00,VWS V14.01,2013-03-22 10:00:00,
2013-03-22 12:02:00,81.0,47.5,29.74,East,90,0.0,0.0,31,0.00,,---,0.00,VWS V14.01,2013-03-22 10:02:00,
2013-03-22 12:03:00,81.3,47.8,29.74,East,90,0.0,0.0,31,0.00,,---,0.00,VWS V14.01,2013-03-22 10:03:00,
2013-03-22 12:06:00,81.0,47.5,29.74,ESE,112,0.0,0.0,31,0.00,,---,0.00,VWS V14.01,2013-03-22 10:06:00,
2013-03-22 12:09:00,81.1,47.7,29.74,ESE,112,0.0,0.0,31,0.00,,---,0.00,VWS V14.01,2013-03-22 10:09:00,
2013-03-22 12:11:00,81.5,48.0,29.74,ESE,112,0.0,0.0,31,0.00,,---,0.00,VWS V14.01,2013-03-22 10:11:00,
2013-03-22 12:12:00,81.5,48.0,29.74,ESE,112,0.0,0.0,31,0.00,,---,0.00,VWS V14.01,2013-03-22 10:12:00,
2013-03-22 12:16:00,81.3,47.8,29.74,East,90,0.0,0.0,31,0.00,,---,0.00,VWS V14.01,2013-03-22 10:16:00,
2013-03-22 12:17:00,81.3,47.8,29.74,East,90,0.0,0.0,31,0.00,,---,0.00,VWS V14.01,2013-03-22 10:17:00,
2013-03-22 12:18:00,81.9,48.3,29.74,ENE,68,0.0,0.0,31,0.00,,---,0.00,VWS V14.01,2013-03-22 10:18:00,
2013-03-22 12:22:00,82.0,48.5,29.74,ESE,112,0.0,0.0,31,0.00,,---,0.00,VWS V14.01,2013-03-22 10:22:00,
2013-03-22 12:23:00,82.0,48.5,29.74,SSE,158,0.0,0.0,31,0.00,,---,0.00,VWS V14.01,2013-03-22 10:23:00,
2013-03-22 12:26:00,81.9,48.3,29.74,ESE,112,0.0,0.0,31,0.00,,---,0.00,VWS V14.01,2013-03-22 10:26:00,
2013-03-22 12:27:00,82.0,48.5,29.74,SE,135,0.0,0.0,31,0.00,,---,0.00,VWS V14.01,2013-03-22 10:27:00,
2013-03-22 12:29:00,82.0,47.6,29.74,ESE,112,0.0,0.0,30,0.00,,---,0.00,VWS V14.01,2013-03-22 10:29:00,
2013-03-22 12:31:00,82.0,48.5,29.74,SSE,158,0.0,0.0,31,0.00,,---,0.00,VWS V14.01,2013-03-22 10:31:00,
2013-03-22 12:33:00,82.2,48.6,29.74,ESE,112,0.0,0.0,31,0.00,,---,0.00,VWS V14.01,2013-03-22 10:33:00,
2013-03-22 12:35:00,82.0,47.6,29.74,East,90,0.0,0.0,30,0.00,,---,0.00,VWS V14.01,2013-03-22 10:35:00,
2013-03-22 12:40:00,82.2,47.7,29.74,ESE,112,0.0,0.0,30,0.00,,---,0.00,VWS V14.01,2013-03-22 10:40:00,
2013-03-22 12:42:00,82.4,47.9,29.74,SE,135,0.0,0.0,30,0.00,,---,0.00,VWS V14.01,2013-03-22 10:42:00,
2013-03-22 12:43:00,82.4,47.9,29.74,ESE,112,0.0,0.0,30,0.00,,---,0.00,VWS V14.01,2013-03-22 10:43:00,
2013-03-22 12:46:00,82.8,47.3,29.74,ESE,112,0.0,0.0,29,0.00,,---,0.00,VWS V14.01,2013-03-22 10:46:00,
2013-03-22 12:48:00,82.9,47.5,29.74,ESE,112,0.0,0.0,29,0.00,,---,0.00,VWS V14.01,2013-03-22 10:48:00,
2013-03-22 12:49:00,82.9,47.5,29.74,ESE,112,0.0,0.0,29,0.00,,---,0.00,VWS V14.01,2013-03-22 10:49:00,
2013-03-22 12:51:00,82.9,46.5,29.74,ESE,112,0.0,0.0,28,0.00,,---,0.00,VWS V14.01,2013-03-22 10:51:00,
2013-03-22 12:54:00,82.9,46.5,29.74,SSE,158,0.0,0.0,28,0.00,,---,0.00,VWS V14.01,2013-03-22 10:54:00,
2013-03-22 12:55:00,83.3,47.8,29.74,SE,135,0.0,0.0,29,0.00,,---,0.00,VWS V14.01,2013-03-22 10:55:00,
2013-03-22 12:56:00,83.3,47.8,29.71,ESE,112,0.0,0.0,29,0.00,,---,0.00,VWS V14.01,2013-03-22 10:56:00,
2013-03-22 12:57:00,83.7,48.1,29.71,ESE,112,0.0,0.0,29,0.00,,---,0.00,VWS V14.01,2013-03-22 10:57:00,
2013-03-22 13:02:00,83.5,47.0,29.71,ENE,68,0.0,0.0,28,0.00,,---,0.00,VWS V14.01,2013-03-22 11:02:00,
2013-03-22 13:03:00,83.3,45.9,29.71,ESE,112,0.0,0.0,27,0.00,,---,0.00,VWS V14.01,2013-03-22 11:03:00,
2013-03-22 13:05:00,83.5,47.0,29.71,ESE,112,0.0,0.0,28,0.00,,---,0.00,VWS V14.01,2013-03-22 11:05:00,
2013-03-22 13:07:00,84.2,46.6,29.71,SE,135,0.0,0.0,27,0.00,,---,0.00,VWS V14.01,2013-03-22 11:07:00,
2013-03-22 13:09:00,84.0,45.5,29.71,ESE,112,0.0,0.0,26,0.00,,---,0.00,VWS V14.01,2013-03-22 11:09:00,
2013-03-22 13:10:00,84.2,45.6,29.71,ESE,112,0.0,0.0,26,0.00,,---,0.00,VWS V14.01,2013-03-22 11:10:00,
2013-03-22 13:13:00,83.8,47.3,29.71,SE,135,0.0,0.0,28,0.00,,---,0.00,VWS V14.01,2013-03-22 11:13:00,
2013-03-22 13:15:00,83.8,46.3,29.71,SSE,158,0.0,0.0,27,0.00,,---,0.00,VWS V14.01,2013-03-22 11:15:00,
2013-03-22 13:18:00,83.8,45.3,29.71,SE,135,0.0,0.0,26,0.00,,---,0.00,VWS V14.01,2013-03-22 11:18:00,
2013-03-22 13:20:00,83.7,47.1,29.71,SE,135,0.0,0.0,28,0.00,,---,0.00,VWS V14.01,2013-03-22 11:20:00,
2013-03-22 13:25:00,83.3,47.8,29.71,ESE,112,0.0,0.0,29,0.00,,---,0.00,VWS V14.01,2013-03-22 11:25:00,
2013-03-22 13:26:00,83.1,47.6,29.71,SE,135,0.0,0.0,29,0.00,,---,0.00,VWS V14.01,2013-03-22 11:26:00,
2013-03-22 13:27:00,82.9,47.5,29.71,ESE,112,0.0,0.0,29,0.00,,---,0.00,VWS V14.01,2013-03-22 11:27:00,
2013-03-22 13:29:00,83.1,47.6,29.71,SSE,158,0.0,0.0,29,0.00,,---,0.00,VWS V14.01,2013-03-22 11:29:00,
2013-03-22 13:33:00,82.9,48.3,29.71,SSE,158,0.0,0.0,30,0.00,,---,0.00,VWS V14.01,2013-03-22 11:33:00,
2013-03-22 13:34:00,82.8,48.2,29.71,East,90,0.0,0.0,30,0.00,,---,0.00,VWS V14.01,2013-03-22 11:34:00,
2013-03-22 13:37:00,82.0,49.3,29.71,SE,135,0.0,0.0,32,0.00,,---,0.00,VWS V14.01,2013-03-22 11:37:00,
2013-03-22 13:38:00,81.9,49.1,29.71,SE,135,0.0,0.0,32,0.00,,---,0.00,VWS V14.01,2013-03-22 11:38:00,
2013-03-22 13:40:00,81.3,49.5,29.71,South,180,0.0,0.0,33,0.00,,---,0.00,VWS V14.01,2013-03-22 11:40:00,
2013-03-22 13:44:00,80.1,50.7,29.71,SSW,202,0.0,0.0,36,0.00,,---,0.00,VWS V14.01,2013-03-22 11:44:00,
2013-03-22 13:46:00,79.3,50.1,29.71,SSW,202,0.0,0.0,36,0.00,,---,0.00,VWS V14.01,2013-03-22 11:46:00,
2013-03-22 13:47:00,79.0,49.8,29.71,SW,225,0.0,0.0,36,0.00,,---,0.00,VWS V14.01,2013-03-22 11:47:00,
2013-03-22 13:48:00,78.8,51.1,29.71,SE,135,0.0,0.0,38,0.00,,---,0.00,VWS V14.01,2013-03-22 11:48:00,
2013-03-22 13:50:00,78.6,51.6,29.71,WSW,248,0.0,0.0,39,0.00,,---,0.00,VWS V14.01,2013-03-22 11:50:00,
2013-03-22 13:52:00,78.3,52.0,29.71,South,180,0.0,0.0,40,0.00,,---,0.00,VWS V14.01,2013-03-22 11:52:00,
2013-03-22 13:54:00,77.7,52.2,29.71,South,180,0.0,0.0,41,0.00,,---,0.00,VWS V14.01,2013-03-22 11:54:00,
2013-03-22 13:56:00,77.5,52.0,29.71,North,0,0.0,0.0,41,0.00,,---,0.00,VWS V14.01,2013-03-22 11:56:00,
2013-03-22 13:58:00,77.5,52.7,29.71,SSE,158,0.0,0.0,42,0.00,,---,0.00,VWS V14.01,2013-03-22 11:58:00,
2013-03-22 13:59:00,77.2,52.3,29.71,SSW,202,0.0,0.0,42,0.00,,---,0.00,VWS V14.01,2013-03-22 11:59:00,
2013-03-22 14:05:00,76.3,52.8,29.71,SSW,202,0.0,0.0,44,0.00,,---,0.00,VWS V14.01,2013-03-22 12:05:00,
2013-03-22 14:08:00,76.1,53.2,29.71,South,180,0.0,0.0,45,0.00,,---,0.00,VWS V14.01,2013-03-22 12:08:00,
2013-03-22 14:10:00,76.1,53.8,29.71,SSW,202,0.0,1.1,46,0.00,,---,0.00,VWS V14.01,2013-03-22 12:10:00,
2013-03-22 14:12:00,75.4,53.2,29.71,WSW,248,0.0,0.0,46,0.00,,---,0.00,VWS V14.01,2013-03-22 12:12:00,
2013-03-22 14:13:00,75.6,53.3,29.71,SSW,202,0.0,0.0,46,0.00,,---,0.00,VWS V14.01,2013-03-22 12:13:00,
2013-03-22 14:17:00,75.2,54.2,29.71,SSW,202,1.1,1.1,48,0.00,,---,0.00,VWS V14.01,2013-03-22 12:17:00,
2013-03-22 14:18:00,75.4,54.3,29.71,SSW,202,0.9,2.5,48,0.00,,---,0.00,VWS V14.01,2013-03-22 12:18:00,
2013-03-22 14:19:00,75.2,54.2,29.71,SSW,202,3.6,3.6,48,0.00,,---,0.00,VWS V14.01,2013-03-22 12:19:00,
2013-03-22 14:21:00,75.0,54.6,29.71,SW,225,1.1,2.5,49,0.00,,---,0.00,VWS V14.01,2013-03-22 12:21:00,
2013-03-22 14:23:00,75.0,55.1,29.71,SSW,202,0.0,3.8,50,0.00,,---,0.00,VWS V14.01,2013-03-22 12:23:00,
2013-03-22 14:24:00,74.7,54.2,29.71,SSW,202,3.1,3.8,49,0.00,,---,0.00,VWS V14.01,2013-03-22 12:24:00,
2013-03-22 14:27:00,74.7,55.3,29.71,WSW,248,0.0,3.6,51,0.00,,---,0.00,VWS V14.01,2013-03-22 12:27:00,
2013-03-22 14:28:00,74.7,55.9,29.71,SW,225,0.0,2.7,52,0.00,,---,0.00,VWS V14.01,2013-03-22 12:28:00,
2013-03-22 14:30:00,74.7,55.9,29.71,SSW,202,0.0,0.0,52,0.00,,---,0.00,VWS V14.01,2013-03-22 12:30:00,
2013-03-22 14:32:00,74.5,55.7,29.71,SSE,158,2.9,2.9,52,0.00,,---,0.00,VWS V14.01,2013-03-22 12:32:00,
2013-03-22 14:34:00,74.3,55.6,29.71,SSW,202,0.0,0.0,52,0.00,,---,0.00,VWS V14.01,2013-03-22 12:34:00,
2013-03-22 14:40:00,73.4,55.8,29.71,South,180,2.2,3.1,54,0.00,,---,0.00,VWS V14.01,2013-03-22 12:40:00,
2013-03-22 14:41:00,73.4,55.8,29.71,SW,225,0.0,2.2,54,0.00,,---,0.00,VWS V14.01,2013-03-22 12:41:00,
2013-03-22 14:42:00,73.0,56.4,29.71,SSW,202,0.0,3.8,56,0.00,,---,0.00,VWS V14.01,2013-03-22 12:42:00,
2013-03-22 14:45:00,73.2,58.0,29.71,SSW,202,0.0,2.2,59,0.00,,---,0.00,VWS V14.01,2013-03-22 12:45:00,
2013-03-22 14:46:00,72.9,57.7,29.71,SSW,202,0.0,4.3,59,0.00,,---,0.00,VWS V14.01,2013-03-22 12:46:00,
2013-03-22 14:49:00,72.7,58.5,29.71,SW,225,3.4,5.4,61,0.00,,---,0.00,VWS V14.01,2013-03-22 12:49:00,
2013-03-22 14:51:00,73.2,59.9,29.71,SSW,202,0.0,3.4,63,0.00,,---,0.00,VWS V14.01,2013-03-22 12:51:00,
2013-03-22 14:54:00,73.2,59.0,29.71,SSW,202,5.6,5.6,61,0.00,,---,0.00,VWS V14.01,2013-03-22 12:54:00,
2013-03-22 14:56:00,73.2,58.5,29.71,SSW,202,3.1,5.6,60,0.00,,---,0.00,VWS V14.01,2013-03-22 12:56:00,
2013-03-22 14:58:00,73.4,59.2,29.68,SSW,202,5.4,6.5,61,0.00,,---,0.00,VWS V14.01,2013-03-22 12:58:00,
2013-03-22 14:59:00,73.4,58.7,29.68,SSW,202,6.3,6.3,60,0.00,,---,0.00,VWS V14.01,2013-03-22 12:59:00,
2013-03-22 15:00:00,73.2,59.0,29.68,SSW,202,5.8,6.3,61,0.00,,---,0.00,VWS V14.01,2013-03-22 13:00:00,
2013-03-22 15:03:00,73.0,59.3,29.68,SSW,202,5.4,5.4,62,0.00,,---,0.00,VWS V14.01,2013-03-22 13:03:00,
2013-03-22 15:08:00,73.2,59.4,29.68,SSW,202,4.3,6.3,62,0.00,,---,0.00,VWS V14.01,2013-03-22 13:08:00,
2013-03-22 15:09:00,73.4,59.2,29.68,SSW,202,1.1,5.6,61,0.00,,---,0.00,VWS V14.01,2013-03-22 13:09:00,
2013-03-22 15:10:00,73.2,59.0,29.68,SSW,202,4.9,5.6,61,0.00,,---,0.00,VWS V14.01,2013-03-22 13:10:00,
2013-03-22 15:13:00,73.6,59.8,29.68,South,180,0.0,5.4,62,0.00,,---,0.00,VWS V14.01,2013-03-22 13:13:00,
2013-03-22 15:15:00,73.4,59.2,29.68,SSW,202,4.0,4.0,61,0.00,,---,0.00,VWS V14.01,2013-03-22 13:15:00,
2013-03-22 15:19:00,73.2,59.4,29.68,SSW,202,2.7,6.0,62,0.00,,---,0.00,VWS V14.01,2013-03-22 13:19:00,
2013-03-22 15:20:00,73.2,59.9,29.68,SSW,202,0.0,3.6,63,0.00,,---,0.00,VWS V14.01,2013-03-22 13:20:00,
2013-03-22 15:21:00,73.2,59.4,29.68,SSW,202,2.7,4.3,62,0.00,,---,0.00,VWS V14.01,2013-03-22 13:21:00,
2013-03-22 15:23:00,73.6,59.8,29.68,WSW,248,4.3,4.3,62,0.00,,---,0.00,VWS V14.01,2013-03-22 13:23:00,
2013-03-22 15:26:00,73.4,59.2,29.68,SSW,202,0.0,5.8,61,0.00,,---,0.00,VWS V14.01,2013-03-22 13:26:00,
2013-03-22 15:28:00,73.2,59.4,29.68,SSW,202,0.0,0.0,62,0.00,,---,0.00,VWS V14.01,2013-03-22 13:28:00,
2013-03-22 15:30:00,73.0,59.3,29.68,SSW,202,0.0,0.0,62,0.00,,---,0.00,VWS V14.01,2013-03-22 13:30:00,
2013-03-22 15:31:00,73.0,59.3,29.68,SSW,202,0.0,0.0,62,0.00,,---,0.00,VWS V14.01,2013-03-22 13:31:00,
2013-03-22 15:34:00,73.0,59.7,29.68,SW,225,0.0,0.0,63,0.00,,---,0.00,VWS V14.01,2013-03-22 13:34:00,
2013-03-22 15:36:00,73.0,60.2,29.68,SW,225,0.0,0.0,64,0.00,,---,0.00,VWS V14.01,2013-03-22 13:36:00,
2013-03-22 15:37:00,73.4,60.5,29.68,SSW,202,0.0,2.2,64,0.00,,---,0.00,VWS V14.01,2013-03-22 13:37:00,
2013-03-22 15:40:00,73.0,60.2,29.68,SSW,202,3.4,4.0,64,0.00,,---,0.00,VWS V14.01,2013-03-22 13:40:00,
2013-03-22 15:42:00,72.7,59.8,29.68,SW,225,0.0,0.0,64,0.00,,---,0.00,VWS V14.01,2013-03-22 13:42:00,
2013-03-22 15:45:00,73.2,60.8,29.68,SSW,202,0.0,0.0,65,0.00,,---,0.00,VWS V14.01,2013-03-22 13:45:00,
2013-03-22 15:47:00,73.0,60.2,29.68,SSW,202,3.1,4.0,64,0.00,,---,0.00,VWS V14.01,2013-03-22 13:47:00,
2013-03-22 15:49:00,73.6,60.2,29.68,SSW,202,3.1,3.1,63,0.00,,---,0.00,VWS V14.01,2013-03-22 13:49:00,
2013-03-22 15:52:00,73.4,59.6,29.68,SSW,202,0.0,0.0,62,0.00,,---,0.00,VWS V14.01,2013-03-22 13:52:00,
2013-03-22 15:55:00,73.4,59.2,29.68,WSW,248,0.0,4.3,61,0.00,,---,0.00,VWS V14.01,2013-03-22 13:55:00,
2013-03-22 15:57:00,73.4,59.2,29.68,SSW,202,0.0,0.0,61,0.00,,---,0.00,VWS V14.01,2013-03-22 13:57:00,
2013-03-22 15:58:00,73.4,59.2,29.68,SSW,202,0.0,0.0,61,0.00,,---,0.00,VWS V14.01,2013-03-22 13:58:00,
2013-03-22 16:00:00,73.4,58.7,29.68,SSW,202,0.0,0.0,60,0.00,,---,0.00,VWS V14.01,2013-03-22 14:00:00,
2013-03-22 16:02:00,73.2,58.0,29.68,SW,225,0.0,0.0,59,0.00,,---,0.00,VWS V14.01,2013-03-22 14:02:00,
2013-03-22 16:07:00,72.5,58.8,29.68,SSW,202,0.0,0.0,62,0.00,,---,0.00,VWS V14.01,2013-03-22 14:07:00,
2013-03-22 16:08:00,72.3,59.0,29.68,SSW,202,0.0,0.0,63,0.00,,---,0.00,VWS V14.01,2013-03-22 14:08:00,
2013-03-22 16:09:00,72.1,58.9,29.68,South,180,0.0,0.0,63,0.00,,---,0.00,VWS V14.01,2013-03-22 14:09:00,
2013-03-22 16:10:00,72.1,58.9,29.68,SSW,202,0.0,0.0,63,0.00,,---,0.00,VWS V14.01,2013-03-22 14:10:00,
2013-03-22 16:12:00,71.8,59.0,29.68,SSW,202,0.0,0.0,64,0.00,,---,0.00,VWS V14.01,2013-03-22 14:12:00,
2013-03-22 16:16:00,71.4,60.7,29.68,SSW,202,0.0,0.0,69,0.00,,---,0.00,VWS V14.01,2013-03-22 14:16:00,
2013-03-22 16:17:00,71.4,61.5,29.68,SW,225,0.0,0.0,71,0.00,,---,0.00,VWS V14.01,2013-03-22 14:17:00,
2013-03-22 16:19:00,71.1,61.6,29.68,SW,225,0.0,0.0,72,0.00,,---,0.00,VWS V14.01,2013-03-22 14:19:00,
2013-03-22 16:20:00,70.9,61.0,29.68,SSW,202,0.0,0.0,71,0.00,,---,0.00,VWS V14.01,2013-03-22 14:20:00,
2013-03-22 16:23:00,71.2,61.4,29.68,WSW,248,0.0,0.0,71,0.00,,---,0.00,VWS V14.01,2013-03-22 14:23:00,
2013-03-22 16:24:00,71.4,61.5,29.68,WSW,248,0.0,0.0,71,0.00,,---,0.00,VWS V14.01,2013-03-22 14:24:00,
2013-03-22 16:25:00,71.4,61.1,29.68,SW,225,0.0,0.0,70,0.00,,---,0.00,VWS V14.01,2013-03-22 14:25:00,
2013-03-22 16:28:00,71.1,60.0,29.68,SW,225,0.0,0.0,68,0.00,,---,0.00,VWS V14.01,2013-03-22 14:28:00,
2013-03-22 16:29:00,70.7,60.0,29.68,SSW,202,0.0,0.0,69,0.00,,---,0.00,VWS V14.01,2013-03-22 14:29:00,
2013-03-22 16:32:00,70.5,60.3,29.68,SW,225,0.0,0.0,70,0.00,,---,0.00,VWS V14.01,2013-03-22 14:32:00,
2013-03-22 16:33:00,70.5,60.7,29.68,SSW,202,0.0,0.0,71,0.00,,---,0.00,VWS V14.01,2013-03-22 14:33:00,
2013-03-22 16:36:00,70.3,60.9,29.68,SW,225,0.0,0.0,72,0.00,,---,0.00,VWS V14.01,2013-03-22 14:36:00,
2013-03-22 16:37:00,70.2,60.7,29.68,WSW,248,0.0,0.0,72,0.00,,---,0.00,VWS V14.01,2013-03-22 14:37:00,
2013-03-22 16:38:00,70.2,61.1,29.68,SSW,202,0.0,0.0,73,0.00,,---,0.00,VWS V14.01,2013-03-22 14:38:00,
2013-03-22 16:41:00,70.2,61.1,29.68,SSW,202,0.0,0.0,73,0.00,,---,0.00,VWS V14.01,2013-03-22 14:41:00,
2013-03-22 16:44:00,69.8,61.5,29.68,SSW,202,0.0,0.0,75,0.00,,---,0.00,VWS V14.01,2013-03-22 14:44:00,
2013-03-22 16:45:00,69.6,61.7,29.68,SSW,202,0.0,0.0,76,0.00,,---,0.00,VWS V14.01,2013-03-22 14:45:00,
2013-03-22 16:46:00,69.8,62.3,29.68,SW,225,0.0,0.0,77,0.00,,---,0.00,VWS V14.01,2013-03-22 14:46:00,
2013-03-22 16:51:00,70.0,63.2,29.68,SSW,202,0.0,0.0,79,0.00,,---,0.00,VWS V14.01,2013-03-22 14:51:00,
2013-03-22 16:53:00,70.2,63.7,29.68,SSW,202,0.0,0.0,80,0.00,,---,0.00,VWS V14.01,2013-03-22 14:53:00,
2013-03-22 16:54:00,70.3,63.9,29.68,SSW,202,0.0,0.0,80,0.00,,---,0.00,VWS V14.01,2013-03-22 14:54:00,
2013-03-22 16:57:00,70.2,63.7,29.68,SSW,202,0.0,0.0,80,0.00,,---,0.00,VWS V14.01,2013-03-22 14:57:00,
2013-03-22 16:59:00,70.2,63.7,29.68,SW,225,0.0,0.0,80,0.00,,---,0.00,VWS V14.01,2013-03-22 14:59:00,
2013-03-22 17:02:00,70.0,63.5,29.68,SSW,202,0.0,0.0,80,0.00,,---,0.00,VWS V14.01,2013-03-22 15:02:00,
2013-03-22 17:03:00,70.2,63.7,29.68,SSW,202,0.0,0.0,80,0.00,,---,0.00,VWS V14.01,2013-03-22 15:03:00,
2013-03-22 17:04:00,70.2,63.7,29.68,SSW,202,0.0,0.0,80,0.00,,---,0.00,VWS V14.01,2013-03-22 15:04:00,
2013-03-22 17:09:00,70.5,63.0,29.68,SSW,202,0.0,0.0,77,0.00,,---,0.00,VWS V14.01,2013-03-22 15:09:00,
2013-03-22 17:10:00,70.5,63.0,29.68,SW,225,0.0,0.0,77,0.00,,---,0.00,VWS V14.01,2013-03-22 15:10:00,
2013-03-22 17:12:00,70.7,63.1,29.68,SSW,202,0.0,0.0,77,0.00,,---,0.00,VWS V14.01,2013-03-22 15:12:00,
2013-03-22 17:15:00,70.3,62.0,29.68,SW,225,0.0,0.0,75,0.00,,---,0.00,VWS V14.01,2013-03-22 15:15:00,
2013-03-22 17:16:00,70.3,62.0,29.68,SW,225,0.0,0.0,75,0.00,,---,0.00,VWS V14.01,2013-03-22 15:16:00,
2013-03-22 17:17:00,70.3,62.0,29.68,SW,225,0.0,0.0,75,0.00,,---,0.00,VWS V14.01,2013-03-22 15:17:00,
2013-03-22 17:18:00,70.3,62.0,29.68,SW,225,0.0,0.0,75,0.00,,---,0.00,VWS V14.01,2013-03-22 15:18:00,
2013-03-22 17:22:00,70.5,61.8,29.68,SSW,202,0.0,0.0,74,0.00,,---,0.00,VWS V14.01,2013-03-22 15:22:00,
2013-03-22 17:23:00,70.7,61.6,29.68,SSW,202,0.0,0.0,73,0.00,,---,0.00,VWS V14.01,2013-03-22 15:23:00,
2013-03-22 17:24:00,70.7,61.6,29.68,SSW,202,0.0,0.0,73,0.00,,---,0.00,VWS V14.01,2013-03-22 15:24:00,
2013-03-22 17:29:00,70.7,61.6,29.68,SSW,202,0.0,0.0,73,0.00,,---,0.00,VWS V14.01,2013-03-22 15:29:00,
2013-03-22 17:30:00,70.7,61.6,29.68,SSW,202,0.0,0.0,73,0.00,,---,0.00,VWS V14.01,2013-03-22 15:30:00,
2013-03-22 17:32:00,71.1,62.0,29.68,South,180,0.0,0.0,73,0.00,,---,0.00,VWS V14.01,2013-03-22 15:32:00,
2013-03-22 17:35:00,71.1,61.6,29.68,SSW,202,0.0,0.0,72,0.00,,---,0.00,VWS V14.01,2013-03-22 15:35:00,
2013-03-22 17:36:00,70.9,61.8,29.68,SW,225,0.0,0.0,73,0.00,,---,0.00,VWS V14.01,2013-03-22 15:36:00,
2013-03-22 17:37:00,70.9,61.8,29.68,SSE,158,0.0,0.0,73,0.00,,---,0.00,VWS V14.01,2013-03-22 15:37:00,
2013-03-22 17:42:00,70.2,61.1,29.71,SSW,202,0.0,0.0,73,0.00,,---,0.00,VWS V14.01,2013-03-22 15:42:00,
2013-03-22 17:44:00,70.2,61.5,29.71,SSW,202,0.0,0.0,74,0.00,,---,0.00,VWS V14.01,2013-03-22 15:44:00,
2013-03-22 17:46:00,70.2,61.9,29.71,SSW,202,0.0,0.0,75,0.00,,---,0.00,VWS V14.01,2013-03-22 15:46:00,
2013-03-22 17:47:00,70.0,62.1,29.71,SSW,202,0.0,0.0,76,0.00,,---,0.00,VWS V14.01,2013-03-22 15:47:00,
2013-03-22 17:50:00,70.2,62.6,29.71,SSW,202,0.0,0.0,77,0.00,,---,0.00,VWS V14.01,2013-03-22 15:50:00,
2013-03-22 17:51:00,70.3,62.8,29.71,SSW,202,0.0,0.0,77,0.00,,---,0.00,VWS V14.01,2013-03-22 15:51:00,
2013-03-22 17:56:00,70.2,62.6,29.71,SSW,202,0.0,0.0,77,0.00,,---,0.00,VWS V14.01,2013-03-22 15:56:00,
2013-03-22 17:57:00,69.8,62.3,29.71,SSW,202,0.0,0.0,77,0.00,,---,0.00,VWS V14.01,2013-03-22 15:57:00,
2013-03-22 18:01:00,69.6,63.2,29.71,SSW,202,0.0,0.0,80,0.00,,---,0.00,VWS V14.01,2013-03-22 16:01:00,
2013-03-22 18:02:00,69.4,63.0,29.71,SSW,202,0.0,0.0,80,0.00,,---,0.00,VWS V14.01,2013-03-22 16:02:00,
2013-03-22 18:04:00,69.4,63.4,29.71,SSW,202,0.0,0.0,81,0.00,,---,0.00,VWS V14.01,2013-03-22 16:04:00,
2013-03-22 18:08:00,69.3,63.2,29.71,SSW,202,0.0,0.0,81,0.00,,---,0.00,VWS V14.01,2013-03-22 16:08:00,
2013-03-22 18:09:00,69.3,63.5,29.71,SSW,202,0.0,0.0,82,0.00,,---,0.00,VWS V14.01,2013-03-22 16:09:00,
2013-03-22 18:10:00,69.3,63.5,29.71,SSW,202,0.0,0.0,82,0.00,,---,0.00,VWS V14.01,2013-03-22 16:10:00,
2013-03-22 18:14:00,69.3,64.2,29.71,SW,225,0.0,0.0,84,0.00,,---,0.00,VWS V14.01,2013-03-22 16:14:00,
2013-03-22 18:15:00,69.3,64.6,29.71,SSW,202,0.0,0.0,85,0.00,,---,0.00,VWS V14.01,2013-03-22 16:15:00,
2013-03-22 18:16:00,69.1,64.4,29.71,SSW,202,0.0,0.0,85,0.00,,---,0.00,VWS V14.01,2013-03-22 16:16:00,
2013-03-22 18:17:00,69.1,64.1,29.71,SSW,202,0.0,0.0,84,0.00,,---,0.00,VWS V14.01,2013-03-22 16:17:00,
2013-03-22 18:21:00,68.9,64.2,29.71,SW,225,0.0,0.0,85,0.00,,---,0.00,VWS V14.01,2013-03-22 16:21:00,
2013-03-22 18:22:00,68.9,64.2,29.71,SSW,202,0.0,0.0,85,0.00,,---,0.00,VWS V14.01,2013-03-22 16:22:00,
2013-03-22 18:23:00,68.7,64.4,29.71,SSW,202,0.0,0.0,86,0.00,,---,0.00,VWS V14.01,2013-03-22 16:23:00,
2013-03-22 18:27:00,68.9,64.9,29.71,SW,225,0.0,0.0,87,0.00,,---,0.00,VWS V14.01,2013-03-22 16:27:00,
2013-03-22 18:28:00,68.7,65.0,29.71,SW,225,0.0,0.0,88,0.00,,---,0.00,VWS V14.01,2013-03-22 16:28:00,
2013-03-22 18:29:00,68.7,64.7,29.71,SW,225,0.0,0.0,87,0.00,,---,0.00,VWS V14.01,2013-03-22 16:29:00,
2013-03-22 18:30:00,68.7,65.0,29.71,SSW,202,0.0,0.0,88,0.00,,---,0.00,VWS V14.01,2013-03-22 16:30:00,
2013-03-22 18:32:00,68.7,65.0,29.71,SW,225,0.0,0.0,88,0.00,,---,0.00,VWS V14.01,2013-03-22 16:32:00,
2013-03-22 18:35:00,68.5,64.8,29.71,SW,225,0.0,0.0,88,0.00,,---,0.00,VWS V14.01,2013-03-22 16:35:00,
2013-03-22 18:36:00,68.5,64.8,29.71,WSW,248,0.0,0.0,88,0.00,,---,0.00,VWS V14.01,2013-03-22 16:36:00,
2013-03-22 18:40:00,68.4,65.0,29.71,SSW,202,0.0,0.0,89,0.00,,---,0.00,VWS V14.01,2013-03-22 16:40:00,
2013-03-22 18:41:00,68.4,65.0,29.71,WSW,248,0.0,0.0,89,0.00,,---,0.00,VWS V14.01,2013-03-22 16:41:00,
2013-03-22 18:46:00,68.0,64.6,29.71,SW,225,0.0,0.0,89,0.00,,---,0.00,VWS V14.01,2013-03-22 16:46:00,
2013-03-22 18:47:00,68.0,64.6,29.71,WSW,248,0.0,0.0,89,0.00,,---,0.00,VWS V14.01,2013-03-22 16:47:00,
2013-03-22 18:50:00,68.0,65.0,29.71,SW,225,0.0,0.0,90,0.00,,---,0.00,VWS V14.01,2013-03-22 16:50:00,
2013-03-22 18:51:00,68.0,65.0,29.71,SSW,202,0.0,0.0,90,0.00,,---,0.00,VWS V14.01,2013-03-22 16:51:00,
2013-03-22 18:54:00,68.0,65.0,29.71,SSW,202,0.0,0.0,90,0.00,,---,0.00,VWS V14.01,2013-03-22 16:54:00,
2013-03-22 18:57:00,68.0,65.3,29.71,SW,225,0.0,0.0,91,0.00,,---,0.00,VWS V14.01,2013-03-22 16:57:00,
2013-03-22 18:58:00,68.0,65.3,29.71,SSW,202,0.0,0.0,91,0.00,,---,0.00,VWS V14.01,2013-03-22 16:58:00,
2013-03-22 19:00:00,67.8,65.4,29.71,SW,225,0.0,0.0,92,0.00,,---,0.00,VWS V14.01,2013-03-22 17:00:00,
2013-03-22 19:04:00,67.8,65.4,29.71,WSW,248,0.0,0.0,92,0.00,,---,0.00,VWS V14.01,2013-03-22 17:04:00,
2013-03-22 19:05:00,67.8,65.4,29.71,WSW,248,0.0,0.0,92,0.00,,---,0.00,VWS V14.01,2013-03-22 17:05:00,
2013-03-22 19:08:00,67.8,65.7,29.71,WSW,248,0.0,0.0,93,0.00,,---,0.00,VWS V14.01,2013-03-22 17:08:00,
2013-03-22 19:10:00,67.8,65.7,29.71,SSW,202,0.0,0.0,93,0.00,,---,0.00,VWS V14.01,2013-03-22 17:10:00,
2013-03-22 19:11:00,67.8,65.7,29.74,SSW,202,0.0,0.0,93,0.00,,---,0.00,VWS V14.01,2013-03-22 17:11:00,
2013-03-22 19:13:00,67.8,65.7,29.74,SW,225,0.0,0.0,93,0.00,,---,0.00,VWS V14.01,2013-03-22 17:13:00,
2013-03-22 19:16:00,67.8,66.0,29.74,SSW,202,0.0,0.0,94,0.00,,---,0.00,VWS V14.01,2013-03-22 17:16:00,
2013-03-22 19:19:00,67.6,65.9,29.74,SSW,202,0.0,0.0,94,0.00,,---,0.00,VWS V14.01,2013-03-22 17:19:00,
2013-03-22 19:21:00,67.6,65.9,29.74,WSW,248,0.0,0.0,94,0.00,,---,0.00,VWS V14.01,2013-03-22 17:21:00,
2013-03-22 19:22:00,67.6,65.9,29.74,WSW,248,0.0,0.0,94,0.00,,---,0.00,VWS V14.01,2013-03-22 17:22:00,
2013-03-22 19:24:00,67.6,65.9,29.74,WSW,248,0.0,0.0,94,0.00,,---,0.00,VWS V14.01,2013-03-22 17:24:00,
2013-03-22 19:25:00,67.6,65.9,29.74,WSW,248,0.0,0.0,94,0.00,,---,0.00,VWS V14.01,2013-03-22 17:25:00,
2013-03-22 19:27:00,67.6,66.2,29.74,WSW,248,0.0,0.0,95,0.00,,---,0.00,VWS V14.01,2013-03-22 17:27:00,
2013-03-22 19:29:00,67.6,66.2,29.74,SW,225,0.0,0.0,95,0.00,,---,0.00,VWS V14.01,2013-03-22 17:29:00,
2013-03-22 19:31:00,67.6,66.2,29.74,SSW,202,0.0,0.0,95,0.00,,---,0.00,VWS V14.01,2013-03-22 17:31:00,
2013-03-22 19:34:00,67.6,66.2,29.74,WSW,248,0.0,0.0,95,0.00,,---,0.00,VWS V14.01,2013-03-22 17:34:00,
2013-03-22 19:35:00,67.6,66.2,29.74,WSW,248,0.0,0.0,95,0.00,,---,0.00,VWS V14.01,2013-03-22 17:35:00,
2013-03-22 19:37:00,67.6,66.2,29.74,WSW,248,0.0,0.0,95,0.00,,---,0.00,VWS V14.01,2013-03-22 17:37:00,
2013-03-22 19:40:00,67.6,66.5,29.74,WSW,248,0.0,0.0,96,0.00,,---,0.00,VWS V14.01,2013-03-22 17:40:00,
2013-03-22 19:42:00,67.6,66.5,29.74,WSW,248,0.0,0.0,96,0.00,,---,0.00,VWS V14.01,2013-03-22 17:42:00,
2013-03-22 19:43:00,67.6,66.5,29.74,WSW,248,0.0,0.0,96,0.00,,---,0.00,VWS V14.01,2013-03-22 17:43:00,
2013-03-22 19:45:00,67.6,66.5,29.74,WSW,248,0.0,0.0,96,0.00,,---,0.00,VWS V14.01,2013-03-22 17:45:00,
2013-03-22 19:46:00,67.6,66.5,29.74,WSW,248,0.0,0.0,96,0.00,,---,0.00,VWS V14.01,2013-03-22 17:46:00,
2013-03-22 19:50:00,67.6,66.5,29.74,WSW,248,0.0,0.0,96,0.00,,---,0.00,VWS V14.01,2013-03-22 17:50:00,
2013-03-22 19:51:00,67.5,66.3,29.74,WSW,248,0.0,0.0,96,0.00,,---,0.00,VWS V14.01,2013-03-22 17:51:00,
2013-03-22 19:52:00,67.5,66.3,29.74,WSW,248,0.0,0.0,96,0.00,,---,0.00,VWS V14.01,2013-03-22 17:52:00,
2013-03-22 19:57:00,67.5,66.0,29.74,WSW,248,0.0,0.0,95,0.00,,---,0.00,VWS V14.01,2013-03-22 17:57:00,
2013-03-22 19:58:00,67.6,66.5,29.74,WSW,248,0.0,0.0,96,0.00,,---,0.00,VWS V14.01,2013-03-22 17:58:00,
2013-03-22 20:00:00,67.6,66.5,29.74,WSW,248,0.0,0.0,96,0.00,,---,0.00,VWS V14.01,2013-03-22 18:00:00,
2013-03-22 20:03:00,67.6,66.5,29.74,WSW,248,0.0,0.0,96,0.00,,---,0.00,VWS V14.01,2013-03-22 18:03:00,
2013-03-22 20:05:00,67.6,66.5,29.74,South,180,0.0,0.0,96,0.00,,---,0.00,VWS V14.01,2013-03-22 18:05:00,
2013-03-22 20:06:00,67.6,66.5,29.74,WSW,248,0.0,0.0,96,0.00,,---,0.00,VWS V14.01,2013-03-22 18:06:00,
2013-03-22 20:09:00,67.6,66.5,29.74,WSW,248,0.0,0.0,96,0.00,,---,0.00,VWS V14.01,2013-03-22 18:09:00,
2013-03-22 20:10:00,67.6,66.5,29.74,WSW,248,0.0,0.0,96,0.00,,---,0.00,VWS V14.01,2013-03-22 18:10:00,
2013-03-22 20:14:00,67.6,66.2,29.74,WSW,248,0.0,0.0,95,0.00,,---,0.00,VWS V14.01,2013-03-22 18:14:00,
2013-03-22 20:16:00,67.6,66.2,29.74,WSW,248,0.0,0.0,95,0.00,,---,0.00,VWS V14.01,2013-03-22 18:16:00,
2013-03-22 20:17:00,67.6,66.2,29.74,WSW,248,0.0,0.0,95,0.00,,---,0.00,VWS V14.01,2013-03-22 18:17:00,
2013-03-22 20:21:00,67.8,66.3,29.74,WSW,248,0.0,0.0,95,0.00,,---,0.00,VWS V14.01,2013-03-22 18:21:00,
2013-03-22 20:22:00,67.8,66.3,29.74,WSW,248,0.0,0.0,95,0.00,,---,0.00,VWS V14.01,2013-03-22 18:22:00,
2013-03-22 20:23:00,67.8,66.3,29.74,West,270,0.0,0.0,95,0.00,,---,0.00,VWS V14.01,2013-03-22 18:23:00,
2013-03-22 20:26:00,68.0,66.5,29.74,WSW,248,0.0,0.0,95,0.00,,---,0.00,VWS V14.01,2013-03-22 18:26:00,
2013-03-22 20:28:00,68.0,66.2,29.74,WSW,248,0.0,0.0,94,0.00,,---,0.00,VWS V14.01,2013-03-22 18:28:00,
2013-03-22 20:32:00,68.0,66.2,29.74,WSW,248,0.0,0.0,94,0.00,,---,0.00,VWS V14.01,2013-03-22 18:32:00,
2013-03-22 20:34:00,68.0,66.2,29.74,WSW,248,0.0,0.0,94,0.00,,---,0.00,VWS V14.01,2013-03-22 18:34:00,
2013-03-22 20:39:00,68.0,65.9,29.74,WSW,248,0.0,0.0,93,0.00,,---,0.00,VWS V14.01,2013-03-22 18:39:00,
2013-03-22 20:40:00,68.0,65.9,29.74,SW,225,0.0,0.0,93,0.00,,---,0.00,VWS V14.01,2013-03-22 18:40:00,
2013-03-22 20:41:00,68.0,65.9,29.74,West,270,0.0,0.0,93,0.00,,---,0.00,VWS V14.01,2013-03-22 18:41:00,
2013-03-22 20:42:00,68.0,65.9,29.74,WNW,292,0.0,0.0,93,0.00,,---,0.00,VWS V14.01,2013-03-22 18:42:00,
2013-03-22 20:45:00,68.0,65.9,29.74,West,270,0.0,0.0,93,0.00,,---,0.00,VWS V14.01,2013-03-22 18:45:00,
2013-03-22 20:46:00,68.2,66.1,29.74,NNW,338,0.0,0.0,93,0.00,,---,0.00,VWS V14.01,2013-03-22 18:46:00,
2013-03-22 20:49:00,68.2,66.1,29.74,WNW,292,0.0,0.0,93,0.00,,---,0.00,VWS V14.01,2013-03-22 18:49:00,
2013-03-22 20:51:00,68.2,66.1,29.74,West,270,0.0,0.0,93,0.00,,---,0.00,VWS V14.01,2013-03-22 18:51:00,
2013-03-22 20:52:00,68.2,66.1,29.74,WNW,292,0.0,0.0,93,0.00,,---,0.00,VWS V14.01,2013-03-22 18:52:00,
2013-03-22 20:53:00,68.2,66.1,29.74,WNW,292,0.0,0.0,93,0.00,,---,0.00,VWS V14.01,2013-03-22 18:53:00,
2013-03-22 20:57:00,68.2,66.1,29.74,WNW,292,0.0,0.0,93,0.00,,---,0.00,VWS V14.01,2013-03-22 18:57:00,
2013-03-22 20:58:00,68.2,66.1,29.74,WNW,292,0.0,0.0,93,0.00,,---,0.00,VWS V14.01,2013-03-22 18:58:00,
2013-03-22 21:00:00,68.2,66.1,29.74,WNW,292,0.0,0.0,93,0.00,,---,0.00,VWS V14.01,2013-03-22 19:00:00,
2013-03-22 21:04:00,68.2,66.1,29.74,WNW,292,0.0,0.0,93,0.00,,---,0.00,VWS V14.01,2013-03-22 19:04:00,
2013-03-22 21:06:00,68.2,66.1,29.74,WNW,292,0.0,0.0,93,0.00,,---,0.00,VWS V14.01,2013-03-22 19:06:00,
2013-03-22 21:07:00,68.2,66.1,29.74,WNW,292,0.0,0.0,93,0.00,,---,0.00,VWS V14.01,2013-03-22 19:07:00,
2013-03-22 21:09:00,68.2,66.1,29.74,WNW,292,0.0,0.0,93,0.00,,---,0.00,VWS V14.01,2013-03-22 19:09:00,
2013-03-22 21:10:00,68.2,66.1,29.74,WNW,292,0.0,0.0,93,0.00,,---,0.00,VWS V14.01,2013-03-22 19:10:00,
2013-03-22 21:13:00,68.4,65.3,29.76,WNW,292,0.0,0.0,90,0.00,,---,0.00,VWS V14.01,2013-03-22 19:13:00,
2013-03-22 21:17:00,68.2,64.8,29.76,NW,315,0.0,0.0,89,0.00,,---,0.00,VWS V14.01,2013-03-22 19:17:00,
2013-03-22 21:18:00,68.2,64.8,29.76,WNW,292,0.0,0.0,89,0.00,,---,0.00,VWS V14.01,2013-03-22 19:18:00,
2013-03-22 21:19:00,68.2,64.8,29.76,WNW,292,0.0,0.0,89,0.00,,---,0.00,VWS V14.01,2013-03-22 19:19:00,
2013-03-22 21:22:00,68.2,64.5,29.76,WNW,292,0.0,0.0,88,0.00,,---,0.00,VWS V14.01,2013-03-22 19:22:00,
2013-03-22 21:24:00,68.2,64.5,29.76,West,270,0.0,0.0,88,0.00,,---,0.00,VWS V14.01,2013-03-22 19:24:00,
2013-03-22 21:25:00,68.2,64.5,29.76,WNW,292,0.0,0.0,88,0.00,,---,0.00,VWS V14.01,2013-03-22 19:25:00,
2013-03-22 21:27:00,68.4,64.7,29.74,WNW,292,0.0,0.0,88,0.00,,---,0.00,VWS V14.01,2013-03-22 19:27:00,
2013-03-22 21:28:00,68.4,64.7,29.74,WNW,292,0.0,0.0,88,0.00,,---,0.00,VWS V14.01,2013-03-22 19:28:00,
2013-03-22 21:33:00,68.4,64.3,29.74,WNW,292,0.0,0.0,87,0.00,,---,0.00,VWS V14.01,2013-03-22 19:33:00,
2013-03-22 21:34:00,68.4,64.7,29.74,WNW,292,0.0,0.0,88,0.00,,---,0.00,VWS V14.01,2013-03-22 19:34:00,
2013-03-22 21:35:00,68.4,64.3,29.74,WNW,292,0.0,0.0,87,0.00,,---,0.00,VWS V14.01,2013-03-22 19:35:00,
2013-03-22 21:36:00,68.4,64.3,29.74,WNW,292,0.0,0.0,87,0.00,,---,0.00,VWS V14.01,2013-03-22 19:36:00,
2013-03-22 21:41:00,68.4,64.0,29.74,WNW,292,0.0,0.0,86,0.00,,---,0.00,VWS V14.01,2013-03-22 19:41:00,
2013-03-22 21:42:00,68.4,64.0,29.74,WNW,292,0.0,0.0,86,0.00,,---,0.00,VWS V14.01,2013-03-22 19:42:00,
2013-03-22 21:43:00,68.4,64.0,29.74,WNW,292,0.0,0.0,86,0.00,,---,0.00,VWS V14.01,2013-03-22 19:43:00,
2013-03-22 21:46:00,68.4,63.7,29.74,WNW,292,0.0,0.0,85,0.00,,---,0.00,VWS V14.01,2013-03-22 19:46:00,
2013-03-22 21:48:00,68.4,63.7,29.74,WNW,292,0.0,0.0,85,0.00,,---,0.00,VWS V14.01,2013-03-22 19:48:00,
2013-03-22 21:49:00,68.4,63.7,29.74,WNW,292,0.0,0.0,85,0.00,,---,0.00,VWS V14.01,2013-03-22 19:49:00,
2013-03-22 21:53:00,68.5,64.2,29.74,WNW,292,0.0,0.0,86,0.00,,---,0.00,VWS V14.01,2013-03-22 19:53:00,
2013-03-22 21:55:00,68.5,63.9,29.74,WNW,292,0.0,0.0,85,0.00,,---,0.00,VWS V14.01,2013-03-22 19:55:00,
2013-03-22 21:56:00,68.5,63.9,29.74,WNW,292,0.0,0.0,85,0.00,,---,0.00,VWS V14.01,2013-03-22 19:56:00,
2013-03-22 21:59:00,68.7,64.0,29.74,WNW,292,0.0,0.0,85,0.00,,---,0.00,VWS V14.01,2013-03-22 19:59:00,
2013-03-22 22:00:00,68.7,64.0,29.74,WNW,292,0.0,0.0,85,0.00,,---,0.00,VWS V14.01,2013-03-22 20:00:00,
2013-03-22 22:01:00,68.7,64.0,29.74,West,270,0.0,0.0,85,0.00,,---,0.00,VWS V14.01,2013-03-22 20:01:00,
2013-03-22 22:02:00,68.7,64.0,29.74,WNW,292,0.0,0.0,85,0.00,,---,0.00,VWS V14.01,2013-03-22 20:02:00,
2013-03-22 22:05:00,68.7,64.0,29.74,WNW,292,0.0,0.0,85,0.00,,---,0.00,VWS V14.01,2013-03-22 20:05:00,
2013-03-22 22:06:00,68.7,64.0,29.74,WNW,292,0.0,0.0,85,0.00,,---,0.00,VWS V14.01,2013-03-22 20:06:00,
2013-03-22 22:07:00,68.7,63.7,29.74,WNW,292,0.0,0.0,84,0.00,,---,0.00,VWS V14.01,2013-03-22 20:07:00,
2013-03-22 22:11:00,68.7,63.7,29.74,WNW,292,0.0,0.0,84,0.00,,---,0.00,VWS V14.01,2013-03-22 20:11:00,
2013-03-22 22:12:00,68.5,63.2,29.74,West,270,0.0,0.0,83,0.00,,---,0.00,VWS V14.01,2013-03-22 20:12:00,
2013-03-22 22:16:00,68.7,63.7,29.74,WNW,292,0.0,0.0,84,0.00,,---,0.00,VWS V14.01,2013-03-22 20:16:00,
2013-03-22 22:18:00,68.7,63.7,29.74,West,270,0.0,0.0,84,0.00,,---,0.00,VWS V14.01,2013-03-22 20:18:00,
2013-03-22 22:19:00,68.7,63.3,29.74,WNW,292,0.0,0.0,83,0.00,,---,0.00,VWS V14.01,2013-03-22 20:19:00,
2013-03-22 22:20:00,68.7,63.3,29.74,NNW,338,0.0,0.0,83,0.00,,---,0.00,VWS V14.01,2013-03-22 20:20:00,
2013-03-22 22:23:00,68.7,63.3,29.74,WNW,292,0.0,0.0,83,0.00,,---,0.00,VWS V14.01,2013-03-22 20:23:00,
2013-03-22 22:26:00,68.7,63.3,29.74,WNW,292,0.0,0.0,83,0.00,,---,0.00,VWS V14.01,2013-03-22 20:26:00,
2013-03-22 22:27:00,68.7,63.3,29.74,WNW,292,0.0,0.0,83,0.00,,---,0.00,VWS V14.01,2013-03-22 20:27:00,
2013-03-22 22:28:00,68.7,63.3,29.74,WNW,292,0.0,0.0,83,0.00,,---,0.00,VWS V14.01,2013-03-22 20:28:00,
2013-03-22 22:30:00,68.7,63.3,29.74,WNW,292,0.0,0.0,83,0.00,,---,0.00,VWS V14.01,2013-03-22 20:30:00,
2013-03-22 22:33:00,68.5,63.2,29.74,West,270,0.0,0.0,83,0.00,,---,0.00,VWS V14.01,2013-03-22 20:33:00,
2013-03-22 22:36:00,68.7,63.3,29.74,WSW,248,0.0,0.0,83,0.00,,---,0.00,VWS V14.01,2013-03-22 20:36:00,
2013-03-22 22:38:00,68.5,63.2,29.74,WSW,248,0.0,0.0,83,0.00,,---,0.00,VWS V14.01,2013-03-22 20:38:00,
2013-03-22 22:39:00,68.5,62.8,29.74,WNW,292,0.0,0.0,82,0.00,,---,0.00,VWS V14.01,2013-03-22 20:39:00,
2013-03-22 22:42:00,68.5,62.8,29.74,WSW,248,0.0,0.0,82,0.00,,---,0.00,VWS V14.01,2013-03-22 20:42:00,
2013-03-22 22:43:00,68.5,62.8,29.74,West,270,0.0,0.0,82,0.00,,---,0.00,VWS V14.01,2013-03-22 20:43:00,
2013-03-22 22:44:00,68.5,62.8,29.74,WSW,248,0.0,0.0,82,0.00,,---,0.00,VWS V14.01,2013-03-22 20:44:00,
2013-03-22 22:45:00,68.5,62.8,29.74,WNW,292,0.0,0.0,82,0.00,,---,0.00,VWS V14.01,2013-03-22 20:45:00,
2013-03-22 22:50:00,68.5,62.8,29.74,West,270,0.0,0.0,82,0.00,,---,0.00,VWS V14.01,2013-03-22 20:50:00,
2013-03-22 22:52:00,68.5,62.8,29.74,WSW,248,0.0,0.0,82,0.00,,---,0.00,VWS V14.01,2013-03-22 20:52:00,
2013-03-22 22:53:00,68.5,62.8,29.74,SW,225,0.0,0.0,82,0.00,,---,0.00,VWS V14.01,2013-03-22 20:53:00,
2013-03-22 22:56:00,68.5,62.8,29.74,WSW,248,0.0,0.0,82,0.00,,---,0.00,VWS V14.01,2013-03-22 20:56:00,
2013-03-22 22:57:00,68.5,62.8,29.74,WSW,248,0.0,0.0,82,0.00,,---,0.00,VWS V14.01,2013-03-22 20:57:00,
2013-03-22 23:00:00,68.5,62.8,29.74,WSW,248,0.0,0.0,82,0.00,,---,0.00,VWS V14.01,2013-03-22 21:00:00,
2013-03-22 23:03:00,68.5,62.8,29.74,WSW,248,0.0,0.0,82,0.00,,---,0.00,VWS V14.01,2013-03-22 21:03:00,
2013-03-22 23:04:00,68.5,62.8,29.74,WSW,248,0.0,0.0,82,0.00,,---,0.00,VWS V14.01,2013-03-22 21:04:00,
2013-03-22 23:08:00,68.5,63.2,29.74,WSW,248,0.0,0.0,83,0.00,,---,0.00,VWS V14.01,2013-03-22 21:08:00,
2013-03-22 23:10:00,68.4,63.0,29.74,WSW,248,0.0,0.0,83,0.00,,---,0.00,VWS V14.01,2013-03-22 21:10:00,
2013-03-22 23:14:00,68.4,63.0,29.74,WSW,248,0.0,0.0,83,0.00,,---,0.00,VWS V14.01,2013-03-22 21:14:00,
2013-03-22 23:15:00,68.4,63.0,29.74,WSW,248,0.0,0.0,83,0.00,,---,0.00,VWS V14.01,2013-03-22 21:15:00,
2013-03-22 23:17:00,68.2,63.2,29.74,WSW,248,0.0,0.0,84,0.00,,---,0.00,VWS V14.01,2013-03-22 21:17:00,
2013-03-22 23:21:00,68.0,62.7,29.74,SSW,202,0.0,0.0,83,0.00,,---,0.00,VWS V14.01,2013-03-22 21:21:00,
2013-03-22 23:22:00,68.0,62.7,29.74,WSW,248,0.0,0.0,83,0.00,,---,0.00,VWS V14.01,2013-03-22 21:22:00,
2013-03-22 23:24:00,68.0,63.0,29.74,WSW,248,0.0,0.0,84,0.00,,---,0.00,VWS V14.01,2013-03-22 21:24:00,
2013-03-22 23:25:00,68.0,63.0,29.74,WSW,248,0.0,0.0,84,0.00,,---,0.00,VWS V14.01,2013-03-22 21:25:00,
2013-03-22 23:27:00,68.0,63.0,29.74,WNW,292,0.0,0.0,84,0.00,,---,0.00,VWS V14.01,2013-03-22 21:27:00,
2013-03-22 23:28:00,68.0,63.0,29.74,WSW,248,0.0,0.0,84,0.00,,---,0.00,VWS V14.01,2013-03-22 21:28:00,
2013-03-22 23:32:00,67.8,62.5,29.74,WSW,248,0.0,0.0,83,0.00,,---,0.00,VWS V14.01,2013-03-22 21:32:00,
2013-03-22 23:34:00,67.8,62.5,29.74,WSW,248,0.0,0.0,83,0.00,,---,0.00,VWS V14.01,2013-03-22 21:34:00,
2013-03-22 23:35:00,67.8,62.5,29.74,WSW,248,0.0,0.0,83,0.00,,---,0.00,VWS V14.01,2013-03-22 21:35:00,
2013-03-22 23:38:00,67.8,62.5,29.74,WSW,248,0.0,0.0,83,0.00,,---,0.00,VWS V14.01,2013-03-22 21:38:00,
2013-03-22 23:39:00,67.8,62.5,29.74,WSW,248,0.0,0.0,83,0.00,,---,0.00,VWS V14.01,2013-03-22 21:39:00,
2013-03-22 23:40:00,67.8,62.5,29.74,WNW,292,0.0,0.0,83,0.00,,---,0.00,VWS V14.01,2013-03-22 21:40:00,
2013-03-22 23:44:00,67.8,62.8,29.74,WSW,248,0.0,0.0,84,0.00,,---,0.00,VWS V14.01,2013-03-22 21:44:00,
2013-03-22 23:46:00,67.8,62.8,29.74,WSW,248,0.0,0.0,84,0.00,,---,0.00,VWS V14.01,2013-03-22 21:46:00,
2013-03-22 23:51:00,67.8,62.8,29.74,West,270,0.0,0.0,84,0.00,,---,0.00,VWS V14.01,2013-03-22 21:51:00,
2013-03-22 23:53:00,67.8,63.2,29.74,WSW,248,0.0,0.0,85,0.00,,---,0.00,VWS V14.01,2013-03-22 21:53:00,
2013-03-22 23:55:00,67.8,63.2,29.74,WSW,248,0.0,0.0,85,0.00,,---,0.00,VWS V14.01,2013-03-22 21:55:00,
2013-03-22 23:56:00,67.8,63.2,29.74,WSW,248,0.0,0.0,85,0.00,,---,0.00,VWS V14.01,2013-03-22 21:56:00,
2013-03-22 23:57:00,67.6,63.0,29.74,WSW,248,0.0,0.0,85,0.00,,---,0.00,VWS V14.01,2013-03-22 21:57:00,